GFSWCAN_925_thetae_078.txt.gz
Theta_e
295 294 293 294 293 292 293 293 293 293 293 293 293 293 293 293 294 294 294 294 294 294 295 294 295 295 296 297 298 297 298 299 299 301 302 303 307 306 305 305 306 307 309 310 308 308 308 308 311 311 309 307 305 302
295 294 293 293 292 291 290 291 292 293 293 294 293 292 292 293 294 294 295 294 294 294 295 294 294 294 294 295 297 296 297 298 298 301 301 301 306 306 306 306 306 308 309 310 309 311 307 304 304 301 303 304 302 300
294 294 293 292 292 291 292 292 293 292 293 292 291 293 294 294 294 294 294 294 294 295 295 294 296 295 294 294 294 296 298 298 299 299 299 301 305 305 306 307 307 307 305 308 309 303 302 301 298 297 296 297 295 294
292 293 293 292 291 292 292 292 292 293 293 291 292 292 293 293 294 294 294 293 294 295 296 296 294 294 294 294 294 294 295 295 297 298 298 300 303 303 304 305 306 304 305 304 305 301 300 298 297 296 295 293 292 292
292 292 293 293 292 291 292 292 292 292 292 291 292 292 293 294 294 294 295 294 294 295 297 297 295 295 295 295 295 295 295 296 297 297 299 301 302 303 305 304 302 300 300 303 305 299 298 295 294 294 294 293 292 292
291 292 292 292 291 291 292 291 292 292 292 291 291 293 294 293 294 295 295 295 294 294 297 297 296 295 296 296 296 296 296 297 296 298 299 301 301 302 303 306 298 297 296 297 298 294 293 292 291 291 291 289 288 288
292 293 292 291 291 291 291 291 292 291 292 291 292 293 294 294 294 294 297 295 294 293 295 297 297 296 296 296 297 297 296 298 298 298 300 300 300 301 304 305 297 295 294 294 295 295 294 293 291 289 288 287 287 286
291 292 291 292 291 291 291 291 291 291 292 292 291 293 294 295 294 293 294 293 293 292 294 298 296 297 297 299 299 298 299 299 300 300 300 301 301 302 303 295 294 294 293 292 292 293 291 290 289 288 287 287 287 286
291 292 292 292 291 291 291 291 291 291 292 293 293 294 294 293 293 294 292 292 292 295 297 295 298 299 298 299 299 299 299 299 299 300 300 300 301 302 295 293 291 290 291 292 291 290 290 289 288 287 287 287 286 285
290 291 291 291 292 291 290 291 291 290 293 293 292 292 296 293 293 292 293 296 295 296 296 296 295 299 298 299 298 299 300 301 300 300 301 301 301 291 289 289 289 288 288 291 292 291 290 289 287 286 285 285 284 283
291 291 290 291 291 291 291 291 291 290 292 292 294 295 293 293 295 296 295 295 295 295 296 296 297 299 299 300 301 300 299 300 299 301 301 302 300 291 288 286 286 286 286 286 287 287 288 287 286 284 283 282 281 280
291 291 291 291 292 292 292 291 292 292 293 293 294 293 294 295 295 295 295 295 295 295 298 297 297 298 299 300 301 300 301 300 302 302 303 303 291 288 287 285 284 284 284 284 284 284 283 283 282 281 280 279 277 276
291 292 291 292 291 291 292 292 293 293 293 293 294 295 295 295 295 296 295 296 297 297 299 298 298 299 300 299 301 302 302 306 302 305 304 295 289 287 285 284 283 282 281 281 280 280 280 279 278 278 277 275 275 274
291 292 291 291 291 291 293 291 292 293 294 295 295 294 296 295 296 297 298 299 299 298 299 299 301 302 300 301 302 303 302 302 305 304 302 292 288 285 284 282 282 280 279 279 278 277 276 275 275 274 274 273 273 272
291 291 291 292 291 292 292 292 293 293 293 296 295 296 295 296 294 294 295 296 295 296 299 300 300 301 301 301 300 301 302 305 301 302 294 289 285 282 281 280 278 277 277 277 276 276 275 275 275 274 274 274 272 271
292 291 292 292 292 292 292 293 292 290 290 292 292 293 291 294 294 295 296 295 294 295 298 299 300 301 299 299 299 300 301 302 297 290 287 284 281 280 279 278 277 277 277 277 276 276 275 275 275 274 273 272 272 271
292 293 292 292 292 293 293 292 290 289 290 290 290 288 290 292 294 292 292 293 291 296 301 298 300 299 296 298 298 294 299 293 287 285 285 283 280 278 276 276 276 277 277 277 277 277 276 275 274 275 275 274 273 272
292 293 294 294 292 292 290 290 290 290 289 289 291 289 287 287 291 290 290 289 293 296 296 298 296 298 299 300 299 291 286 283 285 284 282 280 278 277 278 278 277 278 278 278 277 276 276 277 277 277 276 275 274 273
295 294 293 293 294 292 291 289 289 290 289 288 287 287 287 287 286 286 288 288 289 290 292 292 296 298 297 290 289 286 285 285 284 283 281 279 278 278 278 278 278 279 278 278 279 279 278 277 278 278 277 276 277 276
293 293 293 292 293 291 290 289 288 289 290 289 287 288 288 288 286 286 288 288 289 290 292 293 293 289 289 286 285 286 285 285 284 283 282 281 279 279 280 280 281 280 279 279 278 277 277 277 276 275 275 275 276 276
292 292 292 292 289 289 289 289 288 288 288 288 286 287 288 286 287 288 289 286 290 288 290 285 286 283 280 281 283 283 283 284 285 285 284 282 281 281 281 280 280 280 280 279 279 277 276 276 275 274 274 273 272 272
292 292 291 289 289 288 289 288 289 288 288 288 288 287 288 289 289 287 284 287 286 285 284 285 284 283 282 282 282 283 281 281 281 281 281 281 282 281 281 280 279 279 279 278 278 277 276 274 273 273 273 272 271 271
293 293 290 289 288 288 287 288 289 288 289 289 288 288 288 287 285 283 286 284 284 281 282 283 282 282 282 281 280 280 281 282 282 282 281 281 280 280 279 278 278 278 278 276 275 275 274 271 271 272 271 271 271 271
292 289 290 290 289 288 288 289 289 289 288 289 288 288 286 286 283 285 287 285 283 282 283 282 282 282 281 281 283 281 280 281 280 279 279 279 279 277 277 276 276 275 275 274 274 273 272 272 270 271 270 271 270 270
294 289 290 289 287 289 288 289 289 289 289 287 287 287 286 284 286 286 287 284 283 283 282 282 283 284 284 282 280 278 278 280 280 279 277 278 277 275 275 274 273 272 272 273 273 273 272 270 270 270 270 270 269 269
290 285 289 290 289 290 289 289 289 288 288 287 287 285 285 287 286 288 284 283 283 282 282 283 283 282 282 281 280 279 277 277 278 278 275 275 276 277 276 275 275 273 270 271 272 272 271 269 269 269 269 269 267 266
288 286 284 281 285 286 287 286 286 288 287 288 287 285 286 288 288 283 280 279 282 281 281 281 281 282 280 277 275 274 274 274 275 274 272 271 271 271 273 274 274 272 269 269 268 269 269 268 268 267 267 267 267 266
283 283 285 281 281 280 283 283 285 286 285 283 285 286 287 286 284 279 278 275 277 278 276 275 277 277 276 274 272 272 271 272 272 271 270 269 269 270 270 269 269 268 267 267 267 266 267 267 267 266 266 266 266 265
280 279 280 277 278 278 278 280 281 279 277 281 284 281 279 276 274 274 275 275 275 276 275 274 271 270 270 270 270 271 271 272 272 273 274 274 272 269 268 267 266 266 266 266 266 265 265 265 265 265 264 264 264 262
278 277 278 275 277 279 276 275 276 275 275 276 276 275 275 274 272 272 274 275 276 277 275 274 272 273 272 272 270 268 269 270 271 273 274 274 272 268 266 266 265 265 265 265 265 265 265 264 264 264 264 264 264 264
276 277 277 276 276 275 275 273 272 273 274 275 273 276 276 275 273 271 271 272 272 271 272 271 271 272 272 272 272 271 271 269 270 270 270 269 268 266 266 265 265 265 264 264 264 264 264 264 264 264 264 263 262 261
276 276 276 276 276 274 274 276 276 277 276 277 276 273 273 276 276 273 269 270 272 273 272 272 272 271 270 270 271 271 270 270 268 268 267 267 266 266 265 265 264 264 264 263 263 263 263 262 262 262 262 262 261 260
274 274 274 276 276 276 275 276 276 276 277 277 276 274 274 277 277 272 268 269 272 273 272 270 270 270 270 269 269 269 268 267 267 266 266 265 265 265 264 264 264 264 263 263 263 262 262 261 262 261 261 260 259 259

GFSWCAN_925_thetae_081.txt.gz
Theta_e
295 296 295 295 294 294 294 294 293 294 293 294 294 294 294 294 293 294 296 295 295 296 297 297 296 297 298 298 299 300 300 301 301 302 304 304 303 307 306 305 306 307 307 309 309 310 311 308 311 313 308 308 306 303
294 295 294 293 293 293 293 293 293 293 294 294 293 293 293 293 293 294 296 295 295 295 298 296 296 296 296 296 298 298 299 299 300 301 301 302 305 307 307 308 307 309 310 313 311 313 305 303 303 301 303 303 302 299
293 294 295 293 293 293 292 291 291 292 293 293 293 293 293 293 294 294 296 295 295 297 297 298 298 297 297 296 296 298 299 299 300 299 302 302 305 306 307 308 309 308 306 309 311 302 301 300 299 297 297 297 295 295
293 294 294 293 292 292 292 292 291 292 292 293 292 291 293 294 294 293 295 296 295 297 298 299 297 297 296 296 296 296 298 298 298 298 300 301 303 304 306 306 307 305 306 305 304 301 301 298 298 298 296 294 294 294
292 292 293 293 292 291 291 292 292 292 293 293 292 292 292 293 293 295 295 296 295 296 300 300 298 297 297 297 297 297 297 298 298 299 299 302 302 305 305 305 304 300 299 303 305 300 299 296 295 296 295 295 294 293
292 292 293 293 291 291 292 291 292 292 293 292 292 292 291 292 293 295 294 295 295 295 298 299 299 298 297 297 298 298 298 297 297 298 299 301 302 303 303 306 300 298 297 297 298 296 294 294 294 294 293 292 291 290
292 292 292 293 292 291 291 291 292 292 293 292 291 292 293 293 294 296 297 295 295 294 296 299 299 299 297 298 299 299 298 298 298 299 300 301 301 302 304 306 299 296 295 297 296 297 297 295 293 292 291 290 290 289
291 291 292 293 292 291 291 291 291 292 291 292 292 293 293 293 294 295 295 294 295 293 294 299 299 299 298 299 300 299 299 298 299 300 301 302 302 302 304 297 296 295 295 294 294 295 294 293 292 291 291 290 290 289
291 292 293 292 292 291 291 291 292 292 291 292 292 293 294 294 293 294 293 293 292 294 299 298 299 300 299 300 300 300 300 301 300 302 301 301 302 303 298 296 293 292 293 294 293 293 293 292 292 291 290 290 289 288
291 292 292 291 291 291 290 290 292 291 292 292 293 292 295 292 294 293 293 295 296 297 298 298 299 300 300 300 300 300 301 301 302 303 301 301 302 293 292 292 292 291 292 293 294 293 292 291 290 289 288 288 287 286
291 291 291 291 291 291 291 291 291 292 292 293 293 296 294 293 293 298 297 298 297 298 298 298 299 300 300 301 301 300 301 301 301 302 302 304 302 293 290 290 289 289 290 290 290 290 289 290 288 287 285 284 283 282
291 291 291 291 291 292 291 291 292 292 292 293 295 294 293 296 297 296 297 296 297 296 298 299 299 299 300 300 302 302 301 301 302 303 303 305 295 291 289 288 287 287 287 287 286 286 285 285 284 283 282 281 279 278
291 292 291 291 291 291 291 291 291 293 293 294 295 296 297 296 297 297 296 297 299 299 300 300 299 299 300 300 301 302 302 303 304 305 306 298 292 289 288 288 286 285 284 283 283 282 282 281 281 280 279 277 277 276
291 291 291 291 291 291 291 291 292 292 294 297 298 297 297 297 298 299 300 301 301 301 301 301 300 301 301 301 301 305 306 306 306 306 304 295 290 288 287 286 285 283 282 281 280 279 278 277 277 277 276 276 275 274
290 291 291 291 290 291 291 292 293 292 295 298 297 298 298 299 297 298 297 298 298 298 299 301 301 302 302 303 302 303 304 306 305 304 296 291 288 285 284 283 281 280 280 279 279 278 278 277 277 277 276 275 274 273
291 291 292 290 290 292 292 292 292 293 293 295 295 296 295 296 296 296 300 299 297 298 299 301 303 303 303 302 301 303 303 305 300 294 289 287 285 283 282 281 280 280 280 279 279 278 278 278 278 276 275 274 274 273
291 291 291 291 291 292 292 292 292 292 294 294 294 291 294 296 298 296 296 296 295 298 303 304 303 304 300 301 301 300 302 296 291 289 288 285 284 281 280 279 279 280 280 280 279 279 278 277 276 277 277 275 275 274
291 292 291 292 292 292 292 292 293 293 293 292 294 292 291 291 295 294 294 295 296 299 299 302 300 301 302 302 303 295 290 289 288 287 285 283 281 280 280 280 280 280 280 280 279 278 278 278 279 280 278 277 276 276
292 293 292 291 292 294 295 293 293 294 292 290 290 289 290 290 290 290 292 293 294 295 297 298 301 302 301 296 295 291 289 288 287 285 283 281 281 281 280 280 280 280 280 280 280 281 280 280 280 280 279 278 279 278
292 293 293 293 293 293 293 292 292 293 294 292 291 291 291 291 290 290 292 293 294 295 297 298 299 295 294 291 291 290 289 288 286 284 283 282 280 280 280 281 281 281 281 280 280 280 280 279 278 278 278 278 278 278
293 292 291 293 291 292 292 292 292 292 291 292 290 292 291 291 292 292 293 291 295 296 296 292 290 287 286 288 288 288 287 287 287 286 285 283 282 282 282 283 281 282 282 281 281 280 278 279 278 276 276 276 275 275
292 292 292 291 292 291 291 291 292 291 291 291 291 292 292 292 292 292 290 293 294 291 290 290 289 286 286 286 286 286 285 285 286 285 284 283 284 283 283 282 282 282 281 281 280 280 279 277 276 275 275 275 273 274
293 294 293 291 291 291 290 290 291 291 292 292 292 292 292 292 291 288 292 291 289 285 286 287 286 286 285 284 283 283 284 285 285 284 284 284 283 283 282 281 281 281 280 279 278 278 277 274 274 274 274 274 274 274
293 292 293 293 293 291 290 292 291 292 292 292 293 292 291 291 288 290 293 291 287 284 285 284 285 285 284 283 285 284 284 285 284 283 283 282 282 281 281 280 280 279 278 278 277 276 275 275 272 274 274 273 273 273
298 291 293 292 291 292 292 292 292 292 293 292 291 291 290 289 292 292 292 290 286 285 285 285 285 286 286 286 284 282 282 283 283 283 282 282 281 280 279 278 277 276 275 276 276 276 275 274 273 273 273 273 272 272
295 289 292 293 293 293 293 293 292 292 292 292 292 290 290 291 291 293 290 288 286 285 285 285 286 286 285 284 284 282 281 282 282 281 279 280 280 280 280 279 278 277 274 274 275 275 274 273 272 271 271 271 269 268
293 291 288 285 290 291 291 291 291 292 291 292 291 290 290 292 293 288 283 284 285 284 284 284 284 285 284 282 280 279 278 278 280 279 277 276 275 276 277 278 277 275 273 272 272 272 272 272 271 270 270 270 270 269
288 288 289 287 287 287 290 291 291 291 291 289 291 290 291 292 290 283 282 280 283 282 282 283 283 282 281 279 277 276 274 273 273 274 273 273 273 272 271 271 270 270 269 269 269 269 269 270 270 269 269 269 268 267
286 285 285 282 284 285 286 288 289 286 283 286 290 289 285 280 278 279 278 279 279 279 279 278 277 277 276 276 276 276 276 276 276 276 277 277 275 272 271 270 270 269 269 269 267 267 267 267 267 267 267 267 267 266
283 283 284 282 283 286 283 282 282 279 279 281 281 279 279 278 275 275 277 278 280 281 280 278 277 277 276 276 274 274 273 274 275 276 277 277 275 271 270 270 269 268 268 269 268 268 267 267 267 267 267 267 267 267
281 283 283 283 282 281 279 278 277 278 279 279 279 282 281 278 276 275 276 277 277 277 277 278 277 277 277 276 276 275 273 270 271 271 271 271 270 270 269 268 267 267 267 267 267 267 267 267 267 267 267 266 265 264
282 282 281 281 280 278 278 280 280 281 280 281 280 279 278 280 280 277 273 276 277 278 277 277 277 277 276 273 272 273 273 269 268 268 269 269 268 267 266 266 265 266 266 266 266 266 265 265 265 265 265 265 264 263
279 280 280 280 279 279 279 280 281 280 281 281 281 281 281 282 280 276 271 272 276 277 277 275 273 271 270 270 269 268 268 267 267 267 267 267 266 266 265 265 265 265 265 265 265 265 265 264 264 264 264 263 263 262

GFSWCAN_925_thetae_084.txt.gz
Theta_e
296 296 296 296 296 294 294 294 294 295 294 294 293 294 293 292 291 295 298 296 298 298 299 298 298 298 299 299 300 300 300 301 301 302 304 303 303 304 309 307 305 306 308 309 309 314 313 304 307 310 306 304 303 299
296 296 296 296 294 294 294 294 294 294 293 294 294 294 294 293 292 293 298 296 296 297 299 298 298 298 298 298 298 299 299 300 301 302 302 302 303 307 307 310 308 310 309 310 307 307 304 301 301 299 300 300 299 298
294 295 296 295 295 293 293 293 293 293 293 294 294 293 293 293 293 294 297 297 296 298 299 299 299 299 298 298 297 299 300 301 300 300 302 301 303 305 307 308 307 306 306 308 308 302 300 299 298 296 296 296 296 295
294 294 295 295 293 292 293 293 293 293 293 293 293 293 293 292 293 294 296 297 296 298 299 301 299 298 298 298 298 298 298 299 298 299 301 300 302 304 305 306 306 302 303 303 303 302 300 297 298 297 296 295 294 293
292 293 294 295 293 293 292 292 292 291 293 293 293 291 292 292 292 294 296 297 297 297 300 299 299 298 298 298 298 298 298 298 298 299 300 300 301 305 306 306 302 299 299 300 303 299 298 296 296 294 294 296 295 293
292 293 295 294 293 292 292 291 291 292 292 293 293 292 293 293 292 295 296 296 297 297 298 299 300 300 299 298 299 299 298 298 298 298 299 300 301 304 304 305 300 297 296 296 297 296 295 294 295 294 293 292 291 291
292 292 292 293 294 291 291 291 292 292 293 293 292 292 293 293 294 296 297 295 296 296 297 299 300 299 299 298 299 300 299 299 297 299 299 301 301 303 305 305 298 295 295 296 296 297 296 295 294 293 292 291 290 290
292 293 292 294 293 291 291 292 292 292 293 293 292 291 293 293 294 295 296 295 295 294 294 299 299 300 299 299 300 301 300 298 299 299 301 302 302 303 304 297 296 295 295 295 295 295 294 294 293 293 292 291 290 289
291 292 292 292 293 292 291 291 292 292 292 291 290 292 293 294 294 294 294 295 294 295 299 299 300 301 300 300 300 300 300 300 300 302 302 302 304 304 299 296 294 293 294 295 294 295 294 293 292 292 291 291 289 287
290 290 292 292 293 291 291 291 292 292 290 292 293 294 295 293 294 294 294 295 295 296 298 300 299 301 300 300 301 300 301 301 302 303 302 303 303 296 294 293 293 292 293 294 297 295 293 292 290 289 288 287 286 285
290 291 292 293 292 291 291 291 292 292 292 293 294 295 294 294 294 297 298 297 297 299 299 299 300 301 300 301 301 300 301 302 302 304 303 304 302 294 292 291 291 291 290 290 290 289 289 289 289 287 285 283 281 280
291 291 292 292 291 291 291 290 292 292 293 293 294 293 293 295 298 299 298 298 299 298 300 301 300 300 301 301 302 302 301 302 302 304 303 304 295 292 290 289 289 288 287 287 286 286 285 285 285 283 281 280 279 278
292 291 292 291 291 292 291 291 291 292 292 294 295 297 299 298 299 297 297 297 298 299 301 303 303 301 301 301 303 302 302 302 304 306 305 298 292 290 289 288 287 286 285 284 283 283 282 281 280 280 279 278 277 276
291 291 291 291 291 292 291 291 291 292 293 298 298 298 299 297 298 299 300 303 302 302 302 303 301 301 302 303 301 301 304 304 306 306 304 295 291 289 288 287 285 283 282 281 280 279 279 278 277 277 277 276 275 274
290 290 290 291 292 291 291 291 291 292 292 299 298 299 298 300 298 299 300 301 299 297 302 300 301 301 301 301 302 303 304 305 306 303 296 292 288 286 285 283 282 281 281 280 279 278 278 278 278 277 276 275 273 273
290 290 292 292 291 291 291 291 292 291 293 296 297 297 297 298 298 296 296 299 298 298 298 300 303 302 303 303 303 303 304 305 299 293 290 288 286 285 283 282 281 281 281 280 279 279 279 279 278 276 275 274 274 273
290 292 292 291 291 291 292 291 292 295 296 295 295 293 297 298 300 299 298 298 297 299 302 302 305 305 302 303 302 302 302 296 292 290 288 286 284 283 282 281 281 281 281 280 280 280 279 277 276 278 278 276 276 275
292 292 291 290 292 292 292 292 294 294 294 294 295 294 293 294 298 296 296 296 297 299 301 304 301 302 303 303 305 296 292 290 289 287 286 284 282 281 281 281 281 281 281 281 279 278 278 279 280 281 279 278 277 277
293 292 290 291 291 292 295 294 294 295 294 292 291 291 292 292 292 293 294 295 296 297 298 300 301 303 302 297 296 292 291 289 287 285 284 282 282 282 281 281 281 281 281 280 281 282 281 280 280 281 280 280 279 280
293 291 291 291 292 294 294 294 294 295 294 293 292 292 293 293 292 292 293 295 296 297 298 299 299 295 295 292 294 292 290 289 286 284 283 283 281 281 281 282 282 282 282 282 281 281 280 280 280 279 278 277 278 279
293 292 292 292 292 293 294 294 294 295 293 294 292 293 293 292 292 293 294 294 296 298 299 294 291 288 289 290 290 289 288 287 287 286 284 283 282 282 282 284 282 282 283 282 282 281 279 281 279 278 277 277 276 276
292 292 292 292 293 292 293 293 295 293 293 293 292 294 294 293 293 293 293 294 296 293 292 292 289 287 288 288 288 288 287 287 287 285 284 283 284 284 284 283 283 283 284 283 282 281 280 279 277 277 276 277 275 275
293 294 294 292 292 293 292 293 293 293 293 293 294 294 293 293 293 290 293 294 290 289 289 289 288 288 286 286 286 286 286 286 286 285 284 285 284 284 283 283 284 283 282 281 280 279 278 276 275 275 275 275 275 275
295 293 295 295 295 293 291 293 293 293 294 294 294 294 293 293 291 292 294 293 289 287 288 287 286 286 285 285 285 285 286 286 285 285 284 284 283 283 282 282 281 281 280 279 278 278 277 276 275 275 275 274 274 274
296 293 295 293 293 293 293 294 294 294 295 294 294 294 293 291 292 293 294 291 288 287 286 286 287 287 287 287 286 285 285 284 284 284 284 283 283 281 281 280 279 277 277 278 278 277 277 276 275 274 274 273 273 273
297 291 295 295 294 295 295 295 294 294 294 294 294 293 291 292 293 295 293 290 287 287 287 287 288 288 287 285 284 284 284 284 283 283 282 282 282 282 281 280 279 277 276 276 276 276 276 275 273 272 272 272 271 270
295 292 291 289 293 293 294 294 294 294 293 294 293 291 291 293 295 290 286 286 287 286 286 286 287 287 286 285 283 282 280 281 282 280 278 277 277 278 278 279 278 275 274 273 273 273 273 273 272 271 271 271 271 271
291 291 291 290 291 291 293 293 293 294 294 293 293 292 293 294 291 285 284 283 286 285 285 286 286 285 283 281 279 278 277 276 276 275 275 275 274 273 273 272 273 272 271 271 270 270 271 271 270 270 270 270 269 269
289 288 288 288 289 290 291 292 293 289 286 290 293 292 288 282 281 281 280 281 282 282 282 281 280 279 279 278 278 277 277 277 277 277 278 277 275 273 273 272 271 271 271 270 268 268 268 268 267 267 267 268 268 268
287 287 288 286 287 289 287 285 286 283 283 284 284 282 281 279 278 277 279 280 281 282 281 279 279 278 278 278 278 277 277 277 277 278 279 278 276 272 271 271 270 269 270 270 270 269 268 268 268 269 268 268 268 267
285 286 287 287 286 284 282 281 280 281 282 282 282 285 283 279 277 277 279 281 282 281 279 279 279 279 278 277 276 275 274 271 273 274 274 273 272 271 270 270 269 269 269 269 268 268 267 267 268 268 268 267 266 266
285 286 285 285 283 280 280 281 282 283 282 282 282 281 280 281 281 278 276 278 280 280 280 280 280 279 277 275 275 276 274 271 271 271 271 271 269 268 268 267 267 268 267 267 267 267 266 266 266 266 266 266 265 264
283 283 284 283 281 281 281 283 283 283 283 284 283 282 282 284 282 277 274 275 278 279 279 277 274 274 273 273 271 270 270 270 269 269 269 268 267 267 267 267 267 266 267 267 267 266 266 265 265 264 264 264 263 261

GFSWCAN_925_thetae_087.txt.gz
Theta_e
296 295 296 296 296 295 294 294 295 295 294 294 293 293 292 292 292 297 297 296 297 295 297 298 298 297 297 297 295 297 296 297 296 297 302 296 295 301 303 309 308 306 307 308 308 308 309 300 303 305 305 300 298 296
296 295 296 296 295 295 293 294 294 295 293 294 293 293 292 291 291 296 297 295 295 294 296 297 297 298 298 298 296 296 297 298 296 294 296 298 302 303 306 307 305 309 308 307 305 304 301 298 298 298 298 298 297 295
296 296 296 296 295 295 293 293 294 294 293 293 294 293 292 292 293 296 296 296 296 293 295 297 298 298 298 297 297 296 298 300 298 297 293 297 300 302 305 307 305 302 302 306 305 300 298 298 297 296 296 295 293 292
295 296 296 296 294 294 293 293 294 293 293 294 294 292 293 293 294 294 296 297 297 296 293 299 299 299 298 298 298 297 297 298 298 296 294 295 298 301 304 305 302 300 300 301 303 300 297 296 297 297 295 293 292 292
294 295 295 295 294 293 293 293 293 293 294 293 292 293 292 291 292 294 296 296 297 297 296 295 297 298 297 298 298 298 297 296 295 295 294 296 297 301 301 302 299 298 298 298 299 297 296 296 295 293 293 294 292 290
293 294 294 294 294 292 293 293 292 292 293 292 293 292 291 291 293 295 290 297 297 297 292 293 297 299 299 298 299 298 297 295 295 294 294 297 298 301 297 298 297 296 296 296 295 295 293 294 294 292 292 291 290 289
292 293 294 295 294 293 292 291 291 291 292 293 293 292 292 291 295 294 296 295 296 296 293 294 296 298 299 299 298 298 298 297 295 295 296 297 298 302 298 300 296 294 295 295 295 295 294 293 293 292 291 290 289 288
291 292 294 294 294 293 291 291 291 292 293 293 292 292 292 292 294 295 295 295 295 294 294 296 295 297 299 296 296 297 297 295 296 295 297 299 299 300 299 297 296 294 294 294 294 293 293 293 292 292 292 289 287 286
291 291 292 293 293 291 291 291 292 293 293 292 291 291 292 293 293 294 295 295 294 294 295 293 293 292 299 298 296 297 297 293 296 295 299 299 294 297 298 295 293 293 293 294 294 294 293 292 290 289 289 288 286 285
291 292 292 293 293 291 291 292 292 293 293 291 291 293 291 293 294 294 293 294 293 294 296 296 296 295 298 293 293 295 294 295 298 298 299 294 296 294 294 293 293 293 293 292 295 292 293 289 287 286 285 285 284 282
291 291 292 293 292 291 291 291 292 292 291 292 291 292 294 293 294 296 295 295 292 297 294 295 295 295 298 293 295 298 299 298 301 301 299 296 298 293 292 291 289 288 289 288 288 287 286 287 285 283 282 280 279 278
292 292 292 292 293 291 291 292 292 291 292 292 294 293 294 295 296 297 296 295 297 297 295 295 295 296 297 299 297 298 300 298 301 299 299 295 294 291 289 288 286 285 285 285 284 284 284 283 282 280 279 278 277 276
291 291 292 293 292 291 291 292 291 293 293 293 294 294 296 294 298 293 292 294 292 294 295 294 294 295 296 297 298 300 301 299 301 302 299 294 291 289 287 286 285 284 283 282 281 279 279 279 279 278 276 276 275 274
291 292 292 292 292 291 290 291 292 292 293 295 297 294 295 293 291 291 294 294 294 293 294 292 293 293 293 295 296 299 295 301 305 301 299 292 290 287 286 284 282 280 279 279 278 278 276 276 276 276 276 275 274 274
291 292 292 291 291 291 291 291 292 292 291 295 297 295 291 295 296 296 296 297 297 296 292 292 293 295 299 298 298 298 299 300 302 298 292 288 285 282 280 279 277 276 276 277 278 277 277 277 276 275 274 274 273 272
291 291 291 291 291 291 291 291 292 291 292 294 295 296 294 297 296 295 295 296 296 295 296 297 299 299 297 297 300 301 303 301 296 291 288 285 283 281 279 278 279 280 279 278 278 278 278 277 275 275 274 273 273 273
291 292 291 292 291 291 291 290 291 291 293 294 294 291 295 297 297 297 294 295 296 297 298 298 300 299 301 299 299 295 298 293 290 288 286 283 282 279 279 280 280 280 280 279 279 279 277 277 275 275 274 274 275 274
292 292 292 292 291 291 291 292 293 294 295 294 293 293 293 293 295 295 294 293 295 297 298 301 298 298 294 299 300 293 291 288 287 285 283 280 280 280 280 280 281 281 280 280 279 278 277 277 277 279 278 277 277 276
292 292 291 291 290 292 292 293 293 294 293 292 290 291 291 291 291 292 292 293 294 295 293 295 297 297 298 296 293 290 288 286 283 282 281 281 280 281 281 281 281 281 280 279 279 279 279 280 280 279 279 278 278 278
292 291 290 290 292 292 295 295 294 293 292 291 292 291 291 292 291 291 292 293 294 295 294 295 296 293 293 292 290 288 288 284 282 282 282 282 281 281 281 281 282 281 280 281 281 281 280 280 279 278 278 277 277 276
292 292 291 291 291 292 293 293 294 293 291 293 292 291 291 290 291 292 293 293 294 294 296 292 289 288 289 290 289 288 285 284 282 281 281 281 281 281 281 282 282 281 282 281 281 280 280 279 278 277 277 277 276 275
292 291 291 291 291 292 292 292 293 292 292 292 292 293 292 292 292 292 292 293 293 291 290 287 285 286 288 288 288 287 287 286 285 283 282 282 281 281 283 282 282 283 283 283 282 280 278 277 277 276 276 276 275 275
291 291 293 291 292 292 292 293 293 293 293 293 293 294 293 293 292 289 290 292 288 285 287 286 286 287 287 287 287 287 286 284 283 283 282 283 283 284 283 283 283 283 282 280 280 279 277 276 275 275 275 275 275 275
294 293 293 293 294 292 290 292 293 293 294 294 294 294 293 293 290 288 292 290 284 285 286 285 285 285 285 285 282 285 285 285 284 283 284 284 283 283 283 281 280 279 280 279 278 277 276 276 275 275 275 275 274 273
293 292 293 294 292 292 292 292 293 293 290 291 293 293 291 288 291 292 292 287 286 287 284 286 285 284 280 279 284 286 285 285 284 282 283 283 282 282 280 278 277 277 278 277 277 277 276 276 275 274 274 273 272 272
296 291 293 294 293 293 293 294 293 294 293 292 294 290 288 291 292 291 290 285 284 286 284 286 285 285 285 284 283 284 284 284 284 282 282 282 281 280 278 275 276 276 276 276 276 275 275 274 273 272 272 272 271 271
293 292 290 289 292 294 292 294 294 294 294 293 292 290 291 291 290 285 282 282 284 286 287 287 287 287 284 282 281 282 283 283 281 278 278 279 279 280 280 278 275 274 274 274 273 273 272 272 271 271 271 271 270 269
292 291 285 286 290 290 293 293 291 293 292 292 292 292 292 290 285 281 280 284 286 286 286 286 286 284 281 280 280 280 279 278 278 277 276 275 274 275 275 275 274 273 272 272 271 271 271 270 270 270 269 269 268 268
287 288 288 290 289 286 291 291 290 285 284 287 292 290 282 279 279 279 281 282 282 282 280 280 279 279 279 278 278 278 277 277 276 272 271 268 272 272 271 271 271 271 271 270 269 269 268 268 268 268 268 268 268 268
287 288 286 282 282 286 284 281 283 281 280 281 280 279 278 277 278 278 280 281 282 281 280 279 279 278 278 277 277 276 276 277 277 277 273 271 273 272 271 270 270 270 270 270 269 269 268 268 268 268 268 267 267 266
285 286 287 285 284 282 281 279 280 279 278 278 277 281 277 273 277 278 279 280 281 280 279 279 279 278 278 277 275 274 272 274 276 277 277 275 272 271 271 270 269 269 269 268 268 268 267 267 267 267 266 266 265 264
284 287 286 285 280 279 277 278 278 279 278 278 280 277 275 275 274 273 277 279 280 279 279 279 279 278 277 277 276 276 275 273 273 273 273 272 271 270 269 269 268 268 267 267 267 266 266 266 266 265 264 264 263 262
282 284 284 281 277 279 279 280 281 282 281 281 282 277 276 279 277 273 276 277 278 280 279 277 276 276 276 276 275 273 272 271 271 271 270 269 268 268 267 267 267 267 267 267 266 266 265 264 264 263 263 262 261 260

GFSWCAN_925_thetae_093.txt.gz
Theta_e
297 298 298 297 297 296 297 297 296 294 294 293 292 293 293 296 295 295 295 296 296 292 295 296 297 295 295 294 293 293 293 292 292 295 295 290 291 299 299 298 305 305 304 305 304 306 306 297 299 300 300 296 294 292
295 298 297 297 297 297 295 296 295 294 294 293 292 292 291 296 296 294 295 296 295 293 295 295 296 297 296 295 292 292 293 294 292 292 292 293 295 295 298 302 302 303 301 302 300 300 299 296 296 295 296 295 293 292
297 297 297 296 296 296 295 295 294 294 293 293 292 291 291 295 296 296 296 296 296 291 294 294 296 296 296 296 296 295 295 296 295 291 289 291 295 296 296 299 298 299 299 301 300 297 296 296 294 293 292 291 289 289
296 296 296 296 295 294 294 294 294 293 294 293 292 291 291 295 296 296 296 297 296 291 293 296 296 297 297 296 296 297 296 295 293 292 289 289 294 296 297 300 296 297 297 298 298 297 295 294 294 292 290 290 289 288
296 296 296 296 295 293 293 293 294 293 294 294 292 293 293 294 295 295 295 296 296 293 293 293 294 296 297 297 297 296 295 292 292 292 290 292 294 295 299 294 294 297 297 297 295 295 294 293 292 292 290 289 288 286
295 296 296 296 295 293 293 294 294 293 294 292 293 292 292 293 293 293 289 295 296 295 288 292 292 295 296 297 296 295 293 291 291 291 290 293 293 294 295 293 295 296 295 295 293 293 293 292 291 290 288 287 286 285
296 296 296 295 294 293 293 294 293 293 294 293 292 291 293 293 294 292 290 295 295 294 285 288 294 294 296 296 296 295 297 293 294 292 293 293 294 297 292 295 295 295 295 294 294 292 292 292 291 290 288 287 286 285
296 296 296 295 293 293 293 292 293 293 293 292 291 293 294 294 294 294 294 294 294 292 288 288 292 294 296 294 297 293 295 293 293 292 292 295 295 298 296 293 294 293 293 293 294 293 291 291 288 287 285 285 284 283
295 294 293 293 293 293 292 293 293 293 293 291 291 291 290 291 291 294 293 293 293 292 289 289 291 290 292 293 292 293 292 291 292 291 294 294 292 299 295 293 295 294 293 290 293 292 290 291 289 286 284 284 283 282
295 294 293 292 292 292 291 292 293 293 292 290 290 289 283 292 293 293 292 289 290 292 294 291 291 291 292 286 288 290 289 294 293 294 292 291 294 293 293 293 293 292 291 293 290 289 288 287 286 285 284 282 282 281
294 294 293 292 291 291 290 292 293 292 290 289 286 291 292 293 293 293 291 291 292 294 292 292 291 292 293 290 291 291 296 295 299 295 296 297 296 292 289 290 289 288 287 286 287 287 287 285 284 282 281 280 279 278
294 294 294 293 290 290 291 293 292 291 290 289 292 292 293 293 294 293 293 292 293 294 291 291 292 291 293 293 290 293 300 299 301 299 300 294 288 288 288 286 284 284 284 284 284 284 283 282 281 279 278 277 275 275
292 293 294 291 291 292 293 293 292 290 293 293 293 293 293 294 293 291 291 293 288 290 289 289 290 289 292 291 290 294 301 299 296 298 293 288 288 287 285 284 283 282 281 281 280 279 279 278 278 277 274 274 274 274
291 293 293 291 291 292 293 292 290 292 291 290 293 293 291 290 289 286 288 286 288 286 288 286 288 290 287 291 291 296 290 297 295 296 294 286 287 285 284 283 282 278 277 276 275 276 275 274 274 275 275 274 274 273
291 293 292 291 292 293 292 292 291 291 290 292 294 290 290 290 290 294 294 294 292 292 286 288 290 289 289 289 296 296 299 299 300 297 285 286 285 282 279 277 275 273 272 272 274 273 273 274 274 274 274 274 274 274
292 293 292 292 292 292 292 292 291 290 289 291 293 293 293 294 294 294 294 295 294 294 292 289 293 290 294 296 298 298 300 298 294 283 278 281 279 276 275 274 273 274 274 274 275 274 274 274 274 273 272 272 272 272
292 291 292 291 292 292 292 291 290 289 289 291 292 289 292 292 294 292 293 294 293 295 296 296 297 295 295 297 297 296 296 283 287 281 279 278 278 274 272 274 274 275 275 275 276 275 275 274 273 273 273 273 273 274
292 292 291 292 292 291 290 290 288 290 291 286 287 286 288 289 294 294 293 293 294 296 297 297 297 297 292 294 294 285 286 284 279 277 273 272 274 275 276 276 276 276 276 276 277 276 275 274 274 275 275 275 275 275
292 291 291 291 290 290 289 290 291 292 289 290 290 289 290 290 289 290 290 291 293 294 294 294 296 294 291 287 282 276 274 279 281 276 272 276 277 277 277 277 277 277 277 277 277 276 276 276 277 278 278 277 277 277
291 291 291 290 291 292 291 291 291 292 288 286 289 289 290 289 289 289 290 291 293 294 293 290 289 284 284 280 280 279 278 279 279 278 275 274 277 278 278 278 278 278 278 278 278 277 278 278 278 279 279 278 277 276
291 291 291 290 291 292 292 291 292 293 288 290 287 289 286 290 290 290 291 291 293 292 289 283 282 280 283 283 284 282 280 280 278 278 278 278 278 279 279 279 279 279 278 278 278 279 280 279 278 277 277 277 276 275
291 291 290 290 289 290 291 290 289 288 289 289 290 291 290 290 291 291 290 292 292 286 284 283 282 283 284 283 282 283 282 281 281 280 280 279 279 279 279 280 279 279 279 279 280 279 280 279 277 277 276 276 274 274
290 290 289 289 290 287 289 290 290 290 289 290 290 290 291 289 289 290 288 286 283 279 282 283 285 287 284 285 284 283 282 281 279 279 279 280 280 280 280 281 281 280 279 280 280 280 279 277 276 276 275 274 274 273
291 291 289 289 290 287 288 290 291 292 290 290 289 290 291 290 288 284 287 284 278 277 281 282 285 283 284 285 280 282 282 281 280 279 280 279 278 279 280 281 281 281 281 281 281 279 277 276 275 274 274 274 273 273
289 290 292 292 290 287 291 292 292 289 290 290 293 291 288 286 283 284 284 280 281 284 281 281 282 281 278 275 279 282 282 282 280 279 280 280 279 278 278 279 280 280 280 280 278 277 276 275 274 274 273 272 272 271
288 289 291 287 288 292 291 291 291 291 291 291 290 287 286 284 286 288 285 275 277 282 278 282 278 278 281 282 280 281 282 282 281 279 280 281 281 278 275 274 275 276 277 277 277 276 275 275 274 273 272 271 270 270
291 290 287 287 288 291 288 290 291 288 291 286 287 287 287 290 285 282 275 278 277 283 285 285 284 282 280 281 282 283 282 282 282 281 280 280 280 280 280 278 276 277 276 276 276 276 275 274 272 271 270 269 269 268
288 285 287 285 286 285 290 290 292 288 290 288 287 286 283 284 284 275 275 281 282 282 283 284 284 285 283 283 282 282 280 280 279 278 278 277 278 278 278 278 277 276 275 274 273 272 272 271 270 269 269 268 267 267
284 281 284 283 282 283 283 285 286 284 283 285 286 283 280 277 271 271 280 281 282 283 282 280 279 281 281 279 279 280 280 279 277 275 273 270 270 272 274 275 274 273 272 271 270 270 270 269 268 268 267 267 266 265
282 281 282 278 283 285 281 277 277 273 275 275 276 277 275 271 278 278 280 280 280 281 282 281 279 279 276 275 274 274 276 277 278 278 275 271 272 273 272 272 271 270 269 269 268 268 268 268 268 267 266 266 265 264
283 282 280 279 278 272 271 268 269 269 268 268 264 271 272 267 276 277 278 280 280 279 278 277 277 277 277 275 275 274 274 276 277 278 277 277 274 272 271 271 270 270 269 269 269 268 268 267 267 266 265 264 263 262
282 285 283 279 276 275 273 271 269 269 265 269 271 264 267 268 271 267 277 278 278 277 277 277 276 276 277 277 277 278 278 278 277 277 276 274 272 271 270 270 270 269 269 268 267 266 266 266 265 264 263 262 260 260
282 282 278 278 277 277 276 279 278 276 270 269 268 268 269 272 275 269 275 276 278 279 278 278 278 277 277 277 277 277 277 277 276 275 274 273 271 270 269 269 268 268 267 267 266 266 265 264 263 262 261 260 259 258

GFSWCAN_925_thetae_096.txt.gz
Theta_e
294 296 298 297 295 295 296 297 295 295 293 293 293 293 296 295 295 296 295 295 295 293 295 295 296 295 295 294 294 293 292 292 292 294 294 289 290 296 297 291 303 303 302 303 302 302 301 295 297 297 297 295 294 292
295 299 298 297 295 296 297 297 295 294 293 293 292 292 295 296 295 295 296 295 296 293 294 295 295 295 295 294 292 292 292 294 291 291 292 292 295 290 294 300 298 298 297 299 300 297 297 295 295 293 293 293 292 290
295 294 297 296 296 297 297 296 294 294 293 292 292 292 295 295 295 295 296 296 296 292 294 295 295 296 296 296 296 295 294 294 293 289 288 291 294 295 294 298 297 298 298 299 299 297 295 295 293 292 290 289 288 287
294 298 298 297 297 296 295 295 294 293 293 292 291 293 296 296 295 296 296 296 295 292 294 296 296 296 296 296 297 296 294 293 291 290 289 288 295 295 295 299 296 296 296 297 297 295 294 293 292 291 289 288 286 285
297 297 297 297 296 295 295 294 294 293 293 292 292 293 295 295 295 295 295 295 295 293 295 295 294 295 296 296 295 295 294 291 291 292 289 292 294 294 299 294 295 296 295 295 293 294 294 293 292 291 289 288 287 285
296 296 296 296 295 294 294 294 293 294 293 293 294 294 294 294 293 293 290 295 295 294 291 293 291 294 296 296 295 294 292 290 290 291 290 292 292 293 292 294 295 295 295 294 290 292 291 291 289 288 287 286 285 284
296 296 295 295 293 293 293 294 293 294 293 293 292 292 292 292 293 291 291 294 294 293 287 290 295 293 295 296 296 294 295 291 292 292 292 292 293 295 293 295 295 296 294 294 292 291 291 291 289 288 287 285 284 283
295 296 295 295 293 293 294 293 293 294 293 292 294 294 294 294 294 294 293 293 293 291 286 289 292 294 295 293 298 291 296 293 292 291 292 294 294 295 298 293 294 294 293 293 293 291 290 288 287 286 285 284 284 283
296 296 295 293 293 293 292 293 294 293 291 293 293 293 292 292 291 293 293 293 293 292 289 289 292 290 291 292 295 293 292 292 292 290 293 293 289 296 293 294 294 291 290 293 292 291 290 288 286 285 284 284 283 282
296 295 294 293 293 292 293 293 293 292 290 291 289 288 286 292 293 292 292 287 287 288 290 289 290 292 291 285 287 289 289 292 293 292 291 294 290 293 293 292 292 293 292 290 289 289 289 288 286 285 284 282 282 281
296 294 293 293 292 293 293 293 293 290 290 289 287 291 292 293 293 292 289 288 291 291 290 290 291 292 292 290 290 290 292 293 296 293 294 295 294 292 291 290 288 287 287 289 287 287 287 286 285 283 281 280 279 278
294 293 293 292 292 291 292 293 291 290 290 290 291 292 293 293 293 293 292 292 292 294 290 291 291 290 291 292 290 291 299 298 299 293 297 297 288 288 288 287 285 285 285 285 285 284 284 283 281 279 278 276 275 275
294 293 292 291 291 291 293 292 291 291 292 292 292 293 294 292 292 291 291 293 288 289 288 289 289 288 291 290 288 293 296 300 296 299 296 289 287 287 285 284 283 282 282 281 280 279 279 278 278 277 274 274 274 274
294 294 291 291 291 292 292 292 291 291 291 289 292 292 289 291 289 285 287 285 290 288 287 285 288 288 290 289 290 295 288 295 296 297 292 284 287 285 284 283 282 279 278 277 275 275 274 274 273 274 274 274 274 273
294 293 291 291 292 293 292 290 291 291 290 292 293 288 291 289 289 292 292 293 293 291 286 289 289 288 288 287 293 293 295 295 296 290 284 280 283 282 280 277 275 273 271 271 273 272 272 273 273 273 273 273 273 273
293 292 292 292 293 292 291 291 291 290 288 289 291 292 291 293 293 293 293 294 294 294 288 288 290 286 289 293 296 296 297 293 292 284 277 286 280 276 275 274 273 273 273 272 273 273 273 274 273 273 272 272 272 272
292 292 292 293 292 292 292 291 290 288 287 290 291 285 288 288 291 292 292 293 293 295 293 296 295 292 293 296 298 296 296 288 280 283 275 275 278 273 272 273 273 274 273 274 274 274 274 273 273 273 272 272 273 274
292 292 292 292 292 291 290 290 287 289 289 284 288 286 289 289 293 293 293 293 293 296 296 296 296 295 292 293 288 285 285 283 282 282 272 270 273 274 275 274 275 275 275 275 275 274 274 273 274 275 275 275 275 275
292 292 292 291 291 290 289 289 291 291 289 288 289 289 289 289 289 289 290 291 293 294 291 294 295 296 288 283 281 274 278 284 281 276 270 274 276 276 276 276 276 276 276 276 276 275 275 276 277 277 277 277 277 277
292 292 291 291 291 291 290 289 290 292 288 285 289 289 289 289 289 289 289 291 293 293 293 292 290 284 283 280 279 279 277 277 278 276 274 272 276 276 276 276 276 277 277 277 277 277 276 276 278 278 279 278 277 276
291 291 290 291 291 291 291 291 291 292 288 289 289 290 289 289 290 290 290 291 292 292 287 281 282 276 283 281 282 280 279 280 277 278 277 276 276 277 277 278 277 277 277 278 277 277 278 279 279 278 277 276 275 275
290 290 290 290 289 290 291 290 290 288 288 289 289 291 288 290 290 291 289 290 290 285 283 281 279 284 283 282 281 282 281 281 280 279 279 278 278 278 278 278 278 277 278 278 278 279 280 279 277 277 276 276 275 274
290 290 289 288 286 285 291 290 288 289 285 288 289 289 286 288 286 289 289 286 282 276 279 282 284 287 283 283 282 281 281 280 278 278 278 279 279 279 279 279 279 278 277 278 279 280 279 277 276 276 275 274 274 273
291 290 286 286 286 284 287 290 290 292 289 290 289 288 288 287 287 284 288 283 277 275 280 281 284 284 283 283 279 280 281 280 278 278 279 278 277 278 280 280 280 280 280 280 280 279 277 276 276 275 274 274 273 273
286 286 287 288 288 284 286 290 292 290 288 285 288 285 289 284 282 280 283 279 284 285 283 279 281 281 281 277 276 280 281 281 278 277 279 279 278 277 278 279 280 280 280 281 278 277 276 275 274 274 273 273 272 271
285 283 290 289 286 287 289 291 290 286 286 288 287 286 282 281 285 286 284 275 276 283 283 279 277 278 279 280 279 280 281 281 280 278 278 280 279 278 275 275 275 277 279 280 279 277 276 275 274 273 272 271 270 269
288 288 287 287 288 290 288 288 289 286 287 284 284 283 282 284 284 283 275 277 278 281 282 284 284 282 281 280 281 282 282 281 281 279 279 279 280 280 281 279 277 278 278 277 277 277 276 274 273 272 270 269 268 268
286 286 288 286 286 285 290 290 291 287 289 286 285 286 284 286 288 279 276 280 281 281 281 282 283 284 284 282 282 281 279 279 279 279 278 278 278 278 279 279 278 277 276 275 275 274 274 273 271 270 269 268 267 266
286 281 284 285 282 283 284 286 285 283 282 285 285 283 283 281 275 274 280 280 282 281 280 280 278 281 280 279 279 280 280 279 278 275 273 270 271 273 275 276 275 275 274 272 271 271 271 270 269 268 267 267 265 265
280 279 280 279 282 284 280 276 276 273 274 274 275 276 276 273 277 278 279 279 280 281 281 281 280 281 276 276 274 274 276 278 279 279 276 273 274 274 274 274 274 272 271 270 269 268 268 268 267 267 266 265 264 263
280 278 278 278 277 273 272 269 269 270 268 267 262 271 272 266 274 277 278 279 280 280 279 276 277 278 277 275 274 274 274 277 278 280 280 280 277 275 273 272 271 270 269 269 269 268 268 267 266 266 265 263 262 261
282 285 283 281 278 275 275 274 269 268 264 268 270 263 266 268 273 268 276 277 277 276 278 278 277 276 277 277 277 278 279 278 278 278 278 276 274 272 271 270 270 269 269 268 267 267 267 266 265 264 263 261 260 259
282 281 279 279 278 278 277 280 280 278 270 268 267 265 266 271 276 269 274 275 277 278 279 278 278 277 277 277 278 278 278 277 277 277 275 274 272 271 270 270 269 268 268 267 266 266 265 264 263 262 261 260 259 258

GFSWCAN_925_thetae_099.txt.gz
Theta_e
295 295 294 297 296 296 296 296 296 296 294 293 294 295 296 295 295 295 295 295 295 296 295 296 296 296 296 296 298 295 295 295 296 297 297 296 299 300 300 295 303 303 302 301 301 302 302 295 296 297 295 294 292 291
295 295 295 297 295 296 296 295 295 294 293 293 293 294 296 295 295 295 295 295 295 295 295 294 294 294 294 294 294 293 294 295 295 296 296 296 299 298 298 303 299 301 299 301 300 299 296 294 293 292 292 291 291 289
295 295 296 295 295 296 296 295 294 293 293 292 292 295 295 295 294 295 296 295 295 295 295 295 296 295 295 295 296 298 296 295 295 292 294 297 299 298 301 300 299 299 298 299 298 296 295 294 292 291 290 289 287 286
295 297 297 295 296 297 297 294 294 293 293 292 294 296 295 295 295 296 296 295 295 294 297 297 295 295 295 296 296 295 294 293 293 293 295 296 298 297 300 299 298 296 297 298 297 295 294 293 292 290 289 287 286 285
293 296 296 296 297 296 296 294 293 293 292 291 295 295 295 295 295 295 295 294 294 295 298 297 293 294 295 295 295 294 293 294 294 296 296 297 296 299 299 296 297 295 295 298 297 295 294 293 291 290 289 287 286 285
293 297 297 297 296 296 295 294 293 293 293 294 294 295 295 294 293 293 293 295 294 294 295 297 291 294 295 295 294 294 293 293 293 294 294 294 294 297 298 298 295 295 295 294 294 293 292 290 289 288 286 285 284 283
297 297 297 296 295 294 293 293 293 293 294 293 293 293 293 293 294 293 293 293 293 293 293 295 296 293 294 296 296 296 293 293 294 294 295 294 295 297 297 299 295 296 293 292 291 291 291 290 288 287 286 284 283 282
296 296 295 294 294 294 293 294 294 293 292 293 293 294 294 294 294 293 292 293 293 291 291 295 295 297 294 295 298 293 296 295 294 294 294 296 296 298 298 294 296 295 294 293 292 291 291 289 287 286 285 284 283 282
296 295 294 293 293 294 293 294 293 292 294 293 292 292 292 293 293 293 292 292 293 292 293 293 296 296 293 294 296 295 294 296 294 296 296 295 295 298 296 295 294 293 293 294 291 290 289 288 287 286 285 284 283 282
296 294 293 293 294 293 293 294 292 292 293 291 289 289 289 293 293 292 291 289 290 290 291 293 291 298 294 291 294 296 293 297 297 295 294 296 297 294 294 294 293 292 293 292 291 291 290 288 287 285 285 283 282 281
295 294 293 293 293 293 294 293 291 291 290 290 290 292 292 293 292 291 290 291 291 293 292 292 293 297 294 296 297 293 297 296 297 297 296 296 297 294 293 292 291 292 292 290 289 290 290 288 286 284 282 281 280 279
294 293 293 293 293 293 293 291 290 290 290 291 291 292 292 292 291 291 292 292 293 294 292 293 293 294 294 293 296 294 298 298 299 295 297 299 292 291 289 288 287 287 288 288 287 287 286 285 283 281 279 278 276 275
295 293 293 293 293 293 292 290 291 291 292 292 292 292 292 291 289 287 291 294 293 292 292 293 294 292 294 293 294 296 295 300 297 300 299 294 290 288 287 286 285 284 283 283 282 281 280 279 278 277 275 274 274 273
293 292 292 292 293 293 292 291 292 291 291 291 292 291 286 290 288 288 290 290 291 292 291 290 292 294 292 294 293 295 293 295 297 298 298 290 288 286 285 284 283 282 280 280 278 276 275 273 272 274 274 274 274 273
292 291 290 291 293 292 291 291 290 290 290 291 291 290 290 290 289 292 292 294 294 291 290 292 292 292 292 292 294 295 295 296 298 298 293 287 286 284 283 281 279 276 275 274 274 272 271 272 272 270 272 273 273 272
292 292 293 292 292 292 290 290 290 290 288 290 290 291 290 292 294 294 295 295 294 294 290 291 292 291 293 294 296 296 298 297 297 291 285 284 283 281 279 278 276 274 274 272 273 272 272 272 273 272 273 273 272 272
291 292 292 293 291 291 291 291 290 287 287 290 289 285 288 287 291 292 293 295 293 295 296 295 291 293 294 296 296 297 296 294 286 285 283 282 282 278 275 275 274 273 273 272 272 272 273 273 272 272 272 272 273 273
292 293 293 292 291 291 290 290 288 289 289 288 291 289 287 291 293 293 294 294 295 296 296 297 295 296 295 295 296 292 289 285 284 283 280 277 276 275 276 275 274 274 274 274 274 273 272 273 274 275 274 274 274 274
293 293 292 291 291 290 288 289 289 290 289 290 290 289 290 290 290 290 291 292 293 293 294 295 295 296 295 290 291 284 285 286 284 280 276 272 275 275 275 274 274 275 275 275 275 275 275 276 276 276 276 275 276 276
292 292 291 291 291 290 290 289 290 291 289 287 290 290 290 290 289 290 289 292 293 294 293 293 294 293 291 288 285 286 283 281 280 280 278 275 275 275 275 276 276 276 276 276 276 275 276 276 277 278 278 277 276 275
291 291 291 291 290 291 290 290 291 291 288 290 289 290 290 290 290 290 291 291 291 291 291 287 286 283 282 284 281 280 280 281 282 283 282 278 275 277 277 277 277 277 277 277 277 276 277 278 278 278 277 276 275 275
290 290 290 290 289 289 290 289 291 288 290 289 289 290 287 286 290 291 290 290 290 288 286 286 284 285 285 283 282 282 281 280 280 278 278 277 278 278 278 277 278 277 277 277 277 277 278 278 277 277 276 275 274 274
290 290 289 288 285 283 289 289 288 289 286 289 289 289 289 287 288 290 290 288 286 280 280 283 284 285 283 282 282 281 281 280 280 279 278 279 278 278 277 278 277 277 277 276 278 279 279 278 276 276 275 274 273 273
290 289 284 284 285 285 286 289 290 291 288 289 289 288 288 286 288 288 290 286 281 279 283 282 284 284 283 282 281 280 280 280 278 277 278 278 278 278 278 278 278 278 279 278 278 278 277 277 276 275 274 273 273 272
284 285 283 283 288 283 286 288 291 291 285 287 286 286 288 286 284 285 285 283 283 286 285 284 284 284 285 282 279 279 280 280 279 278 277 278 277 277 277 278 278 279 279 279 277 277 276 275 275 274 273 273 272 270
281 280 285 285 282 284 285 283 283 284 283 284 285 285 285 286 287 288 286 281 283 285 285 285 284 283 282 281 281 280 280 280 279 278 277 278 278 278 277 277 277 277 279 280 280 277 275 274 273 273 272 270 270 269
284 281 286 287 288 289 286 285 288 286 286 286 286 285 285 284 285 285 281 278 281 280 280 282 283 283 283 279 280 281 280 280 280 279 279 278 279 279 280 279 278 280 280 279 279 278 276 274 272 272 270 269 268 267
284 284 286 287 287 288 288 287 287 287 288 287 285 287 286 286 289 285 282 280 281 281 280 281 282 283 282 281 281 280 279 278 278 278 277 277 278 279 280 280 280 279 278 277 276 276 275 274 273 271 269 268 267 266
288 284 285 284 285 284 286 288 287 285 283 286 287 288 287 283 279 279 279 280 281 280 278 278 277 280 280 278 278 278 278 278 277 277 277 275 274 274 277 278 277 276 276 275 274 274 273 272 270 269 267 266 265 264
285 279 282 281 284 287 285 280 281 276 276 276 276 278 279 278 277 278 279 279 279 280 281 280 278 279 276 275 274 274 276 278 279 279 278 276 276 276 275 275 275 274 273 272 271 270 269 268 267 266 266 265 264 263
279 280 278 278 280 274 273 272 270 271 269 269 265 275 277 271 274 276 277 279 280 280 279 277 276 277 277 275 274 274 274 277 279 280 281 280 279 276 274 274 273 272 271 270 269 268 268 267 266 265 264 263 262 261
280 284 284 280 278 273 273 272 269 270 270 274 274 266 270 273 277 273 274 276 276 276 278 278 277 277 278 279 278 279 279 279 279 280 280 279 276 274 273 272 270 269 269 269 268 268 267 267 265 264 263 261 260 259
282 281 280 281 280 280 279 280 281 281 274 273 271 269 268 273 279 272 272 273 275 277 278 279 278 278 277 277 277 278 279 278 278 278 278 277 276 273 271 270 269 269 268 268 267 267 266 265 263 262 261 260 259 258

GFSWCAN_925_thetae_102.txt.gz
Theta_e
296 296 295 296 296 297 298 297 296 296 295 294 294 296 296 297 296 296 297 296 299 300 299 299 298 300 300 300 301 300 300 299 300 302 302 302 304 304 304 303 305 304 304 304 303 305 307 297 299 302 297 295 293 292
296 295 295 296 297 296 296 296 296 295 294 294 295 296 296 295 295 295 297 295 296 300 298 296 295 295 297 298 299 298 299 299 299 300 300 302 304 304 304 305 302 305 303 305 303 302 297 295 294 293 293 294 292 290
294 295 294 296 296 296 296 295 295 294 294 294 294 296 295 295 295 295 297 296 298 299 299 299 298 297 296 296 297 299 299 298 299 298 302 302 304 304 305 304 302 300 301 302 301 298 296 294 292 292 291 290 289 288
294 296 295 296 295 296 294 294 294 294 293 293 295 295 295 294 294 296 297 295 298 299 300 298 296 296 296 297 297 299 298 298 298 299 300 302 303 302 303 303 303 301 301 300 299 297 295 294 293 291 289 289 288 287
294 295 297 295 296 296 294 294 293 292 292 295 295 295 295 295 296 296 295 295 295 300 300 298 297 296 296 297 297 298 298 298 298 298 300 300 301 303 302 302 301 298 299 301 303 298 297 294 292 290 289 288 287 286
294 296 296 296 297 295 294 293 293 292 294 295 295 294 294 293 294 295 300 296 294 297 300 300 296 298 297 298 298 299 299 299 299 299 298 297 299 302 303 303 297 296 296 297 296 295 294 292 290 289 288 287 286 286
294 296 296 296 296 295 294 293 292 293 294 295 294 294 294 294 294 298 298 295 293 295 302 299 298 298 297 299 299 300 299 299 299 299 298 297 299 301 302 303 297 296 296 295 294 293 292 291 290 288 287 286 286 285
296 296 296 296 295 294 293 293 293 293 293 293 293 293 294 293 294 295 294 293 293 297 300 300 299 299 298 299 300 300 299 299 299 299 299 298 300 300 301 298 297 295 295 294 294 294 293 290 289 288 286 286 286 285
297 296 295 294 294 293 293 293 293 294 294 294 293 293 293 294 296 295 292 292 293 297 300 299 300 301 298 299 300 300 300 300 298 300 299 299 300 300 300 298 296 295 295 294 293 293 292 290 289 288 288 287 286 285
295 294 294 293 294 294 294 293 294 293 292 289 290 293 296 294 292 292 294 297 297 296 297 299 298 300 300 300 300 300 299 300 300 299 299 299 299 298 297 297 297 296 295 294 293 292 291 291 290 289 288 287 286 284
294 294 294 294 293 294 293 293 293 292 289 293 294 294 294 293 294 295 296 297 296 297 297 298 299 300 298 301 301 299 299 299 299 300 299 299 299 296 296 296 296 295 294 294 294 293 292 291 289 288 286 284 283 282
293 293 294 293 294 294 293 292 291 290 291 293 293 293 294 295 295 295 295 295 297 297 297 300 300 300 300 299 300 299 299 299 301 299 299 300 297 295 295 294 294 293 293 292 292 292 291 289 287 285 284 282 280 278
293 293 293 294 293 292 291 290 291 292 292 293 294 294 294 294 295 295 295 297 298 298 297 299 300 300 300 300 300 299 299 302 299 301 301 300 294 292 291 291 290 290 289 289 288 287 286 285 283 282 280 277 276 275
293 292 293 293 293 291 291 291 291 291 293 294 293 293 294 295 295 295 297 298 296 296 298 299 297 301 298 300 298 298 299 297 300 302 303 297 293 291 290 289 289 287 286 285 284 282 280 277 276 276 276 275 274 273
292 293 293 293 292 291 291 291 290 291 294 294 294 294 295 294 294 295 296 297 294 295 299 300 299 300 299 298 297 296 298 300 302 303 301 295 291 289 288 287 285 283 282 281 279 277 275 274 274 274 273 274 273 272
292 293 293 293 292 291 291 290 290 292 293 294 294 295 295 298 298 299 299 298 297 297 297 299 299 299 299 299 297 299 300 301 303 299 294 290 288 288 286 284 282 281 280 278 277 276 275 274 275 274 273 272 272 273
292 293 293 292 290 290 290 291 292 291 293 294 295 293 295 297 297 296 298 297 297 299 299 297 297 298 298 297 298 299 302 301 295 291 290 290 288 286 283 280 278 278 278 277 277 277 276 275 273 274 275 273 274 274
293 292 292 291 291 291 291 291 292 293 292 294 295 294 294 295 296 294 294 294 298 298 297 298 298 298 299 299 301 301 295 290 288 289 288 287 285 282 281 281 278 278 278 277 277 276 275 275 277 278 277 275 276 275
293 292 291 291 291 291 292 292 293 292 292 293 293 293 293 293 293 293 293 293 294 296 297 295 296 298 299 300 301 296 293 292 290 287 284 283 282 280 280 279 278 278 278 278 277 277 277 278 279 278 278 278 279 279
292 291 291 291 291 292 292 292 292 293 293 292 292 292 291 292 292 293 294 294 295 295 296 296 297 299 299 298 295 294 293 290 288 288 285 283 280 279 280 279 280 279 279 279 278 278 279 279 279 279 279 280 280 278
291 291 291 291 292 293 292 292 292 292 292 292 291 291 292 291 292 293 293 293 295 294 295 296 297 294 289 288 289 289 289 288 291 291 289 284 282 282 281 281 280 280 280 280 280 280 280 281 280 280 279 279 278 277
291 290 290 290 292 292 292 291 292 292 292 291 292 292 293 293 293 293 293 293 294 294 295 295 294 292 289 289 288 287 286 285 284 283 284 283 284 283 282 281 281 282 281 281 281 281 281 280 279 279 278 276 276 275
290 290 290 290 291 292 292 291 293 292 292 291 291 291 292 292 292 292 292 292 294 289 288 290 289 288 290 285 285 284 284 285 286 286 283 285 284 283 282 282 282 282 282 281 281 281 281 279 278 278 276 276 275 274
290 290 290 290 291 292 291 293 293 292 291 291 291 291 292 292 290 291 292 292 291 287 287 288 288 288 287 286 288 286 284 285 285 284 283 283 283 282 282 282 282 282 281 280 280 280 279 279 276 277 276 275 275 275
291 289 290 289 290 291 292 293 292 292 292 291 291 292 292 291 293 292 292 293 290 289 288 287 288 289 291 290 287 285 281 284 285 285 282 283 283 282 282 281 281 281 280 281 280 280 279 277 277 276 275 275 274 273
290 289 291 291 291 292 292 292 292 292 292 292 293 291 291 292 292 293 292 292 290 289 289 288 289 288 287 287 288 285 283 282 283 284 281 281 282 283 282 282 281 279 280 281 280 279 276 276 276 274 273 271 271 271
290 291 290 289 291 292 292 292 292 293 292 292 293 292 292 292 293 292 289 286 288 285 283 284 287 288 288 285 283 282 281 281 282 282 281 280 281 282 282 282 282 281 279 279 279 278 277 275 274 274 272 270 269 270
290 290 291 291 291 292 293 293 293 293 293 292 292 292 292 292 294 291 288 284 284 282 281 282 283 284 285 283 281 279 277 278 277 277 277 277 276 278 279 280 280 280 278 278 277 277 276 275 273 271 270 268 265 266
289 289 290 289 291 292 293 293 293 292 290 292 294 294 293 290 287 286 282 282 282 282 283 283 280 279 279 278 278 278 278 279 280 281 282 281 280 276 276 277 277 277 277 276 275 274 273 272 271 269 267 265 263 263
289 289 291 289 290 293 293 288 290 284 283 284 284 286 286 286 282 279 280 281 283 284 284 284 281 281 281 281 279 277 278 280 281 282 283 282 281 276 274 274 274 274 273 272 270 269 271 270 269 267 265 263 263 262
286 287 289 290 291 287 282 279 279 279 280 282 278 286 289 283 281 277 278 280 282 281 281 281 280 280 281 280 281 280 280 278 279 280 281 280 278 275 274 273 273 272 271 270 269 268 267 267 266 265 264 262 261 261
286 289 290 289 288 281 279 283 284 285 283 284 286 279 283 285 289 283 273 275 278 280 281 282 282 281 279 280 279 280 280 279 279 280 280 278 275 274 274 273 272 271 270 269 268 267 267 266 265 264 262 260 259 259
285 285 285 285 285 285 283 284 285 286 283 284 283 280 282 284 288 279 272 273 274 278 280 279 278 278 278 278 278 278 279 278 279 280 279 278 277 275 274 272 270 269 269 268 267 266 265 264 263 261 261 260 259 258

GFSWCAN_925_thetae_105.txt.gz
Theta_e
295 296 296 296 295 295 297 298 299 298 297 296 295 295 295 294 296 298 298 299 301 303 301 302 302 302 303 303 304 303 302 301 301 303 304 304 306 305 306 307 306 305 305 305 305 307 309 300 301 302 298 296 294 293
295 296 295 295 297 297 299 298 296 295 296 295 294 294 295 296 297 297 300 298 298 302 301 299 299 299 300 301 302 302 303 301 303 304 303 304 306 306 306 306 305 307 306 309 305 305 297 297 295 294 295 295 293 292
294 294 296 295 298 298 297 296 295 295 293 293 295 296 296 297 297 297 299 298 299 302 301 301 300 299 299 300 301 301 301 301 301 304 306 305 307 306 307 307 304 303 303 304 303 299 297 295 294 293 293 292 291 291
294 295 295 296 297 297 296 296 295 293 294 295 296 296 295 295 295 296 299 299 300 301 302 300 298 299 299 299 300 301 301 301 301 303 305 306 305 305 307 306 307 304 303 302 300 297 297 295 294 292 291 290 289 289
294 294 294 297 296 296 295 295 293 293 294 294 295 295 295 295 295 298 298 298 299 302 301 299 298 298 298 299 299 299 300 300 300 301 304 304 304 304 304 304 304 302 304 303 306 300 300 296 293 292 291 290 289 289
293 293 296 296 296 295 294 293 293 293 294 295 296 295 295 296 297 299 305 298 298 299 300 301 299 300 299 300 300 301 301 301 301 301 301 301 303 304 306 305 300 299 299 300 299 298 296 293 292 291 290 289 289 289
294 296 296 296 295 294 293 293 292 294 295 295 294 294 293 294 298 301 301 298 296 300 303 300 299 299 299 300 301 301 301 301 302 301 300 300 301 303 304 305 299 298 297 297 296 295 293 293 292 291 290 289 288 287
294 296 296 296 294 294 293 292 293 295 295 294 294 294 294 296 297 298 295 294 298 302 302 301 301 300 300 300 302 301 301 301 301 302 301 301 301 302 303 301 298 297 296 295 295 296 295 293 291 290 289 288 288 288
297 296 296 295 294 293 293 293 293 295 293 294 293 294 296 297 299 296 293 295 298 301 302 301 301 302 300 301 301 301 301 302 300 302 301 300 303 302 302 299 297 297 296 295 295 295 293 292 291 290 290 289 289 288
296 296 295 295 293 293 293 293 293 294 294 291 294 297 300 297 293 295 298 301 300 299 301 302 302 301 301 302 301 302 301 301 302 301 300 301 301 300 300 299 297 296 296 295 294 294 293 292 291 291 290 290 289 287
296 295 295 294 294 293 294 295 294 291 291 294 297 297 296 293 297 298 300 299 299 299 300 301 301 302 301 302 302 301 301 301 301 303 301 301 300 300 298 298 297 296 295 295 295 294 294 293 292 291 289 288 286 286
294 294 294 294 294 294 294 292 291 293 294 295 296 296 296 297 297 299 298 298 298 298 300 302 302 301 301 301 301 300 300 301 302 302 301 300 300 297 297 297 295 295 295 294 294 294 293 292 290 289 287 286 284 282
294 294 294 294 294 293 292 290 291 292 294 296 296 296 297 296 299 299 298 299 301 300 300 301 303 301 301 301 301 300 301 303 301 302 302 302 297 296 296 296 293 293 293 293 294 292 291 289 288 286 284 281 279 278
294 293 293 293 292 290 290 292 292 294 295 296 296 296 298 298 298 299 301 302 298 300 302 303 300 302 301 301 300 300 301 300 301 303 304 301 295 294 294 294 293 292 291 291 289 288 286 284 282 281 280 279 277 276
293 294 292 291 290 291 291 291 291 295 296 296 297 297 297 296 298 297 298 297 297 300 301 302 301 302 300 299 299 299 299 301 302 305 301 298 294 292 291 291 289 288 287 287 284 282 281 279 279 278 277 278 276 275
293 293 293 291 291 291 290 292 293 294 295 296 296 297 298 299 298 299 299 298 298 300 301 301 301 301 300 300 299 300 302 303 304 299 295 293 292 290 290 288 287 285 284 283 281 280 279 278 278 278 277 275 274 275
294 294 292 291 291 290 290 294 294 295 295 296 297 296 300 300 299 297 300 300 300 301 301 299 300 300 299 300 300 300 303 301 296 293 292 291 290 289 287 285 283 283 283 282 281 280 278 279 276 276 276 275 276 276
294 293 291 290 292 293 294 294 294 294 295 297 297 296 297 297 296 296 295 297 300 299 298 299 299 298 299 300 303 302 297 292 292 291 290 290 288 286 285 284 282 282 282 281 281 280 278 277 279 279 278 278 278 277
293 292 291 291 292 294 294 295 295 294 295 295 295 295 295 295 294 294 295 295 297 298 298 298 297 300 301 302 302 296 294 295 293 290 288 287 286 285 284 283 282 282 281 281 280 280 279 280 282 280 279 279 280 280
292 291 291 291 293 293 293 294 293 294 295 294 294 293 293 294 295 295 296 295 297 297 297 298 299 300 300 298 298 298 295 295 292 291 288 286 284 284 283 283 284 282 282 281 281 280 281 282 281 281 281 282 282 280
292 292 291 293 294 294 294 294 293 293 293 293 292 293 293 293 293 294 295 295 296 296 297 298 300 296 292 292 294 294 293 293 295 295 292 288 285 286 284 284 283 283 283 282 282 282 282 283 282 282 281 281 281 280
292 291 293 292 294 294 293 293 293 293 293 292 293 293 293 294 294 294 294 294 295 296 297 296 297 295 293 293 292 292 291 291 289 290 289 287 287 286 285 285 284 284 284 283 283 283 284 283 282 281 281 279 279 278
291 292 293 292 293 294 293 293 294 293 293 293 292 293 294 294 294 293 293 294 295 294 293 293 292 292 293 289 288 289 288 290 291 290 288 288 287 286 285 284 285 284 284 284 284 283 283 282 281 281 279 279 278 276
291 292 293 293 294 293 293 293 293 293 293 293 294 294 294 293 292 292 294 296 295 292 291 290 291 291 291 290 292 290 288 290 290 288 288 288 286 285 285 284 284 284 284 284 283 283 282 281 281 279 279 279 278 277
293 292 293 292 292 293 294 293 293 293 294 293 293 294 294 292 294 294 295 297 294 292 290 289 290 291 293 293 291 289 285 288 289 289 286 287 286 285 284 284 284 284 283 283 283 282 281 280 280 279 279 278 277 276
292 292 293 293 293 293 294 294 294 293 294 294 294 294 293 293 294 296 296 295 293 291 290 290 291 290 290 290 291 289 287 286 287 287 286 286 285 285 285 284 284 283 282 283 282 282 280 280 279 278 278 277 275 275
291 293 292 292 293 293 293 294 293 294 294 295 295 293 293 295 297 296 294 291 292 288 288 288 289 290 290 289 287 286 285 285 285 285 284 284 284 284 284 284 283 282 282 283 282 281 280 279 278 277 276 274 273 273
292 292 293 292 292 293 294 294 294 294 295 294 294 294 295 296 297 295 292 288 286 286 285 286 286 287 287 286 284 283 282 281 281 281 281 281 281 282 282 282 283 281 281 281 281 281 280 278 277 276 275 273 271 271
292 291 292 292 293 293 294 295 295 295 294 295 295 296 296 294 292 291 287 286 285 286 286 285 284 283 283 283 283 282 282 282 283 283 283 283 281 280 279 279 280 279 279 279 279 278 278 277 275 274 271 269 269 268
292 291 292 292 293 294 295 293 294 289 289 290 289 291 291 291 288 285 286 286 286 287 287 286 285 284 284 284 283 282 282 283 284 284 285 284 283 279 279 278 278 277 276 275 274 272 272 271 269 268 267 267 266 265
291 290 292 293 293 292 288 285 285 286 287 288 287 290 294 290 288 284 284 285 285 285 285 285 284 284 284 284 284 283 282 281 281 282 284 282 279 279 278 277 277 276 274 272 271 271 270 270 269 268 268 267 265 264
289 290 292 291 292 286 285 287 289 289 289 289 291 287 288 289 292 287 278 279 282 283 284 285 285 284 284 283 284 283 283 282 280 279 280 279 279 277 276 275 274 273 273 272 271 271 270 270 269 267 265 264 264 263
290 289 289 290 290 289 287 288 289 290 288 289 290 287 288 289 291 283 276 275 278 280 282 283 282 282 282 281 281 280 281 280 278 278 278 277 275 274 274 273 272 272 271 271 270 270 269 268 267 266 264 262 261 261

GFSWCAN_925_thetae_108.txt.gz
Theta_e
293 295 296 296 296 296 296 296 297 300 300 299 300 298 297 297 298 297 298 299 301 301 303 303 304 305 306 305 306 304 303 303 303 305 304 306 308 304 308 308 304 304 304 305 306 307 308 300 302 304 299 296 294 292
294 295 296 295 295 296 295 299 299 299 299 298 298 297 297 296 297 297 298 299 300 301 301 300 300 300 301 303 305 305 304 304 305 304 303 304 307 308 308 308 306 309 307 309 305 304 298 297 296 295 297 295 293 291
294 294 295 296 295 296 297 298 297 297 297 296 296 296 295 294 295 297 297 300 300 302 302 301 301 299 300 301 303 303 302 303 303 306 310 307 307 306 308 308 306 304 304 304 303 299 296 295 294 294 294 292 291 291
294 294 296 294 297 298 297 297 296 296 296 295 295 294 295 295 296 297 297 300 301 302 302 300 299 300 300 300 301 303 303 302 303 305 308 308 307 307 308 307 307 304 304 303 301 298 296 295 294 292 291 290 290 289
293 294 294 293 297 296 296 295 294 293 294 296 296 296 296 297 297 297 297 300 300 302 302 300 300 299 300 300 300 300 301 304 304 303 307 307 305 306 306 307 305 304 305 304 307 300 300 296 293 292 291 290 290 289
293 293 292 297 296 296 296 294 293 295 295 296 296 296 296 296 295 298 302 299 300 300 301 301 300 300 300 301 301 302 302 303 302 303 303 304 305 305 307 307 302 302 302 302 301 300 296 294 293 292 291 291 290 290
293 293 296 296 296 295 294 293 294 295 295 295 295 295 295 295 298 299 301 299 299 301 306 301 300 300 300 301 302 302 302 302 303 301 301 302 303 303 306 306 301 300 299 299 297 295 293 293 292 292 291 290 289 289
293 295 296 295 294 294 293 293 294 295 295 294 293 295 296 297 297 298 295 296 301 303 304 303 302 300 300 301 302 302 302 302 303 303 301 301 302 302 305 302 300 297 297 296 296 297 295 294 292 291 290 289 289 288
295 297 296 295 293 293 293 294 295 295 294 294 295 296 297 298 299 297 294 296 300 302 303 302 301 302 302 302 303 302 302 305 301 303 302 301 304 303 304 300 298 297 296 296 296 295 294 293 292 291 290 290 289 288
297 296 295 294 293 293 293 295 295 294 293 294 295 298 301 298 295 295 300 302 303 300 302 303 303 302 302 304 303 303 302 303 303 302 302 302 304 302 302 299 298 297 296 295 296 295 294 292 291 291 290 290 289 288
296 295 294 293 293 293 293 293 294 293 292 296 298 298 296 296 299 299 302 301 300 300 301 302 301 302 302 304 303 302 302 302 301 304 301 302 302 301 300 298 297 297 296 296 296 295 294 293 292 291 291 290 288 287
295 295 294 294 293 294 293 293 293 293 296 296 297 296 298 299 299 300 299 299 300 299 301 303 303 303 302 302 302 301 301 301 302 303 302 301 301 299 299 298 297 296 295 295 295 295 294 292 291 290 288 287 283 280
295 294 294 294 294 293 291 291 293 293 295 297 298 298 298 297 300 300 299 299 302 301 303 304 304 302 301 302 302 301 302 303 302 302 302 302 299 298 297 296 295 295 294 295 294 293 291 290 289 287 283 281 280 279
294 294 294 294 293 292 290 292 294 295 296 297 297 297 300 299 299 301 303 302 301 303 304 305 303 304 303 302 301 301 302 301 301 303 304 299 297 297 295 294 294 294 293 293 291 288 286 285 283 281 281 280 278 277
294 294 292 292 290 291 291 292 294 297 297 297 298 298 298 298 299 299 299 300 300 303 303 303 302 301 300 299 300 300 300 300 302 305 301 298 295 294 294 293 292 291 290 289 287 285 283 281 281 280 278 278 277 276
293 292 292 291 291 291 292 294 295 296 296 296 297 298 299 300 299 299 300 300 300 302 303 302 302 302 301 301 300 300 302 303 303 297 296 294 293 292 291 290 289 288 287 286 283 282 281 280 280 280 278 276 276 276
294 293 291 291 291 291 293 295 295 295 296 297 297 296 299 300 299 298 300 300 300 302 304 300 300 300 300 300 301 301 303 300 295 294 293 293 292 290 289 287 286 285 284 283 282 281 280 280 278 277 277 276 276 276
293 292 291 291 293 293 295 295 295 295 296 298 298 297 298 298 298 297 297 298 301 300 300 301 301 299 300 300 304 301 296 293 293 292 292 291 289 287 286 285 285 284 283 282 281 281 280 278 280 279 278 278 278 278
293 291 291 291 293 294 295 295 296 294 296 296 297 297 296 295 295 295 295 298 299 299 299 299 298 300 302 302 300 296 294 294 292 290 289 288 287 286 285 284 284 284 283 282 282 281 280 281 281 280 280 279 280 279
291 291 291 293 295 294 295 295 294 295 296 295 295 294 295 296 296 296 297 297 298 298 298 298 300 300 300 297 297 296 294 293 290 289 288 287 286 285 284 284 284 283 283 283 283 282 281 283 281 281 280 281 282 281
293 293 293 295 294 294 295 295 294 294 293 294 293 294 294 294 295 296 297 296 297 298 299 300 299 295 293 294 295 295 295 295 294 294 290 287 286 286 285 286 284 284 284 283 283 282 283 283 282 282 282 283 282 281
292 293 294 293 295 294 294 294 294 293 294 293 294 295 295 295 295 295 295 295 295 299 298 297 296 294 293 294 293 295 293 292 292 292 290 288 288 287 286 285 285 285 285 284 283 283 284 283 283 282 282 281 280 278
293 293 293 293 294 294 294 295 294 294 294 293 293 294 294 294 295 294 294 294 296 296 295 295 293 294 292 291 291 291 291 291 292 291 289 289 288 287 286 285 286 286 285 285 284 284 285 283 282 282 280 280 278 277
292 293 293 294 294 293 293 294 294 293 293 295 295 295 294 294 292 294 295 298 295 294 293 291 292 293 293 291 292 291 290 292 290 289 289 288 288 287 286 285 286 286 285 285 284 285 283 283 282 280 280 279 278 277
293 292 294 293 293 294 294 294 294 295 295 294 295 295 294 293 294 295 295 298 295 293 292 290 291 292 294 294 291 289 288 291 290 289 288 288 287 286 286 285 285 285 285 285 285 284 283 282 281 280 280 280 279 278
293 293 294 294 294 294 294 294 294 294 295 295 294 294 293 294 295 296 297 296 294 292 292 291 291 291 291 291 291 290 289 289 289 288 288 287 287 287 286 286 286 285 285 285 284 283 282 281 281 280 280 279 278 276
292 293 293 293 294 293 294 295 294 294 294 295 295 294 294 295 297 298 295 293 292 289 289 289 290 291 291 289 288 287 287 286 288 287 286 285 285 286 286 285 285 284 284 284 283 282 281 281 280 280 278 276 276 275
293 293 293 293 293 293 294 295 294 294 295 295 295 294 295 297 299 295 293 289 287 287 287 287 287 288 288 286 285 284 283 283 283 283 283 283 283 284 285 284 284 283 283 283 282 281 281 280 279 277 276 275 274 273
293 293 293 292 293 293 294 295 295 295 295 296 296 296 296 296 293 292 289 288 287 287 287 286 286 285 285 284 284 283 282 283 283 283 283 283 282 281 282 283 282 282 282 282 281 281 280 278 277 276 273 272 271 269
293 292 292 292 293 294 295 292 294 291 291 292 292 293 293 292 288 287 288 287 287 287 288 287 285 285 285 284 284 283 283 284 285 285 286 284 283 280 281 280 280 280 279 278 278 277 277 275 274 272 270 269 268 267
292 291 292 293 293 294 290 288 288 288 289 290 289 291 294 292 289 286 286 286 286 287 287 286 285 286 286 286 284 283 284 283 283 284 285 283 281 280 279 279 278 277 276 276 275 274 273 271 270 269 268 268 266 265
290 291 292 292 293 289 287 289 290 290 291 290 292 290 289 290 292 286 279 282 284 285 285 286 286 285 285 285 285 284 284 282 282 282 281 281 280 279 278 277 276 275 274 273 272 271 271 270 270 270 268 266 266 264
291 291 292 292 291 290 289 289 290 291 290 290 291 290 290 290 292 283 278 278 279 280 282 284 284 285 284 284 283 283 283 282 281 281 280 280 279 278 277 276 275 274 273 272 272 271 271 270 268 267 266 265 263 262

GFSWCAN_925_thetae_111.txt.gz
Theta_e
293 293 295 296 296 296 296 296 296 297 297 297 297 298 297 300 300 299 298 298 300 299 299 303 303 304 306 305 304 301 300 300 301 303 306 306 308 307 307 304 303 304 304 304 304 304 305 298 301 302 295 294 293 293
292 293 294 295 295 296 296 296 296 296 295 296 297 297 297 299 299 298 298 298 300 297 300 300 300 300 302 304 301 301 302 301 302 303 302 304 307 304 306 308 306 303 301 303 302 301 297 296 296 296 296 293 292 291
293 294 294 295 295 295 296 296 296 298 299 297 297 298 299 298 297 297 298 299 299 301 301 300 300 299 300 301 303 301 301 302 303 303 303 305 305 304 304 303 304 305 304 299 299 297 295 295 295 294 293 292 290 290
293 294 295 294 293 293 297 299 299 299 299 299 299 298 297 296 296 298 298 298 300 301 301 299 299 300 300 301 302 302 302 302 301 302 303 304 305 305 305 304 303 303 302 300 299 297 295 294 293 292 291 290 289 287
293 294 293 293 296 297 297 297 297 296 296 297 297 297 295 296 297 297 298 299 300 301 299 299 299 300 300 300 301 301 301 300 301 301 301 303 303 302 304 302 303 303 300 298 301 296 296 294 292 291 290 290 289 288
294 293 292 293 297 296 296 296 295 295 295 295 294 295 296 296 298 296 295 299 299 300 298 300 299 300 301 301 301 301 301 300 300 300 300 303 304 302 301 302 302 300 300 300 297 295 293 293 292 291 290 290 289 288
292 292 294 297 296 294 294 294 295 296 296 296 296 296 297 297 296 297 299 299 300 300 298 298 298 299 300 301 300 300 300 300 301 298 299 300 301 302 298 301 300 299 296 294 293 293 293 293 292 291 291 290 289 288
292 293 296 295 294 293 294 295 296 296 296 296 296 296 296 296 298 298 296 298 300 302 301 299 299 298 300 300 300 299 300 300 299 300 298 300 299 300 300 297 298 297 296 295 295 294 293 293 291 291 290 289 288 288
293 296 295 294 293 294 295 295 295 294 294 295 296 296 297 297 298 297 297 298 300 302 299 299 299 298 300 300 300 299 300 299 299 300 300 299 298 299 300 296 295 295 296 296 295 293 293 292 291 289 289 289 288 287
295 295 293 293 293 294 294 295 295 294 294 295 296 297 297 299 296 295 297 298 299 298 300 300 300 299 300 298 299 299 298 299 300 299 298 297 297 301 299 296 295 296 296 296 294 293 292 291 290 289 289 288 287 286
296 294 293 292 294 294 295 294 295 295 295 296 297 297 296 295 299 299 297 298 298 299 299 301 299 299 299 298 299 299 299 298 300 299 298 297 297 296 296 295 294 295 295 295 293 291 290 290 289 289 289 288 286 285
295 293 293 292 294 294 294 293 292 295 296 297 296 296 298 299 298 298 298 297 299 299 299 299 299 299 300 300 297 297 299 297 301 297 297 295 298 296 294 295 295 294 294 294 294 292 290 290 289 288 285 283 281 280
294 293 293 293 293 293 293 293 294 294 296 296 298 298 298 296 294 296 296 298 298 298 299 299 298 298 299 298 294 296 293 295 298 293 296 298 298 297 296 294 293 293 293 293 292 291 289 288 286 284 281 279 279 279
294 293 293 294 292 292 292 293 295 296 296 296 295 291 294 294 297 299 301 298 296 297 299 298 297 296 294 294 294 293 295 296 293 295 300 297 297 295 294 294 293 293 292 289 288 286 284 282 281 281 280 279 279 277
294 294 293 292 292 292 292 294 296 297 297 295 296 295 295 296 295 297 294 296 295 297 297 296 295 295 293 290 294 295 293 294 294 301 298 296 295 294 293 293 292 289 287 285 284 283 281 281 280 278 279 279 278 276
293 292 291 291 292 292 294 295 296 296 296 295 295 296 295 294 296 297 297 298 297 295 294 295 296 293 295 295 296 294 299 299 298 296 295 294 292 292 291 290 289 288 286 283 282 282 280 279 278 278 277 277 276 277
292 292 291 291 291 293 294 295 295 295 294 296 295 296 298 296 297 296 297 294 295 295 297 295 294 298 295 297 299 297 296 297 294 293 292 292 291 289 288 286 286 284 283 282 281 280 280 279 278 276 276 276 276 276
291 290 291 291 293 295 296 295 294 294 296 296 295 295 294 294 295 293 295 293 295 295 295 297 294 296 292 298 299 296 293 292 291 291 291 289 287 286 286 285 285 283 282 281 280 280 278 278 278 277 276 276 276 275
291 291 292 293 294 294 294 295 295 294 295 294 294 292 290 293 293 293 293 292 296 297 294 294 295 296 298 298 297 294 292 291 290 289 288 287 286 284 284 284 284 283 282 281 281 279 279 279 279 277 278 277 277 277
291 293 294 295 294 295 295 294 294 294 294 292 291 293 294 292 291 289 290 292 294 295 295 295 297 297 297 294 293 293 291 289 288 288 287 286 285 285 284 284 283 283 282 282 281 280 280 281 279 279 279 279 278 278
293 294 294 295 294 294 294 294 294 293 293 292 293 294 293 293 294 293 294 292 292 294 294 291 294 293 291 291 294 293 291 289 287 286 287 286 285 284 284 284 283 283 283 282 281 281 281 280 280 280 280 281 280 281
293 293 293 293 293 293 292 293 293 293 293 293 293 294 294 294 293 294 293 294 294 294 293 293 293 291 289 291 291 293 292 292 292 288 286 286 286 284 285 283 283 283 283 282 281 281 282 282 281 282 281 280 280 280
294 293 293 294 291 290 293 294 293 294 294 293 293 294 293 293 293 292 293 293 294 292 292 292 292 292 291 291 292 291 291 291 288 287 286 286 286 286 285 284 284 284 283 283 282 283 283 282 282 281 280 279 278 277
291 292 290 291 291 289 291 292 293 293 293 295 293 295 293 292 292 293 293 295 292 290 290 289 290 291 290 290 287 288 290 290 289 289 289 288 287 286 285 285 285 285 284 284 283 284 282 282 281 280 278 277 277 277
288 287 289 289 291 291 290 291 291 293 290 293 292 292 292 292 294 293 294 293 292 290 289 289 289 289 290 289 288 289 290 290 288 288 288 287 286 286 285 285 286 286 285 284 284 283 282 281 280 280 278 277 276 276
287 288 289 290 289 291 292 289 289 290 290 290 292 293 292 293 293 294 296 290 292 291 290 290 289 289 289 290 288 287 288 289 289 287 288 287 286 285 284 284 283 285 285 284 283 282 281 280 280 280 279 278 277 276
287 289 292 292 293 293 290 291 293 290 289 289 289 291 292 288 289 293 291 289 289 289 289 289 290 290 289 287 287 286 287 288 288 286 287 287 286 286 285 285 284 285 285 284 283 282 281 280 280 280 279 278 277 275
291 291 287 288 290 291 289 289 289 289 290 293 291 287 289 291 296 291 289 288 287 287 287 287 288 289 287 286 285 285 284 285 285 285 284 284 285 286 286 285 285 284 284 284 283 282 281 281 279 278 277 276 275 274
290 291 289 291 290 291 289 290 290 291 290 290 288 290 292 291 290 289 288 287 286 286 286 286 286 286 285 284 284 284 283 283 282 279 278 279 280 283 284 284 283 283 283 283 282 281 281 280 278 277 275 274 273 272
290 290 289 287 287 288 289 290 293 290 287 289 288 289 289 289 287 287 287 286 286 287 287 287 285 285 284 284 284 283 283 283 284 283 281 278 281 282 283 283 283 283 282 281 280 279 279 277 276 275 273 271 271 269
290 290 290 289 287 291 289 288 288 288 289 290 289 290 292 290 287 285 285 285 287 287 287 286 285 285 285 285 284 283 283 284 284 284 285 283 281 281 281 281 281 281 281 280 279 277 276 274 273 272 270 269 268 267
290 290 287 286 288 288 287 289 290 289 290 289 289 290 289 289 290 284 280 282 284 286 286 286 285 285 285 286 285 284 284 283 283 283 283 282 280 280 280 279 279 279 278 277 276 275 274 273 271 270 268 267 266 265
291 291 289 289 289 289 288 288 289 289 290 289 290 290 289 288 288 280 278 279 279 280 281 284 285 286 285 285 285 284 284 282 282 282 281 280 280 279 279 278 277 276 276 275 274 273 271 270 269 269 267 266 265 264

GFSWCAN_925_thetae_114.txt.gz
Theta_e
292 292 293 292 294 295 296 296 297 297 296 296 296 295 296 297 298 298 298 299 299 299 300 298 301 304 305 302 302 302 302 302 299 301 303 302 303 304 303 301 303 302 304 305 304 303 305 297 301 302 293 292 291 288
292 292 293 294 295 295 296 296 296 296 297 296 297 297 298 298 298 298 297 298 299 296 300 298 298 300 303 303 301 300 301 300 300 300 301 303 305 307 305 307 305 302 299 301 301 298 296 295 294 293 292 291 291 288
292 292 293 294 295 295 295 295 296 296 296 297 296 297 298 296 299 298 298 298 299 299 299 299 299 298 302 303 301 301 299 301 302 301 301 304 306 304 306 302 304 304 300 297 298 297 296 295 295 294 292 290 290 289
292 293 294 294 293 294 294 294 295 296 296 296 297 297 297 299 298 297 298 298 300 300 299 299 299 300 299 301 301 301 301 300 300 301 300 304 306 303 304 303 302 302 301 299 298 296 295 294 293 292 291 290 289 287
292 293 294 293 292 294 296 298 297 296 296 296 296 296 298 299 298 298 298 298 300 299 297 298 298 300 300 300 300 301 299 298 299 299 300 303 302 302 302 301 301 301 298 297 296 296 294 293 292 291 290 289 286 286
293 293 293 293 295 298 299 299 299 298 298 297 299 298 297 297 298 298 295 298 300 300 295 298 297 299 300 300 300 300 299 298 298 299 300 301 302 301 301 301 300 299 298 297 294 294 292 292 291 290 290 288 287 287
292 292 293 297 297 296 296 296 297 297 297 297 297 296 296 297 298 296 298 299 299 299 294 296 297 297 299 300 298 299 298 298 297 297 298 300 301 301 297 299 299 296 294 293 292 292 292 291 291 290 289 288 288 286
292 295 295 295 294 294 295 295 295 296 296 296 296 296 298 297 298 298 297 298 299 300 297 298 298 297 298 299 299 297 298 298 297 297 297 298 297 299 300 297 296 294 293 293 293 293 292 292 291 290 289 288 287 286
294 295 294 293 295 296 296 296 296 296 296 296 296 297 297 297 297 297 297 299 299 299 297 297 297 295 297 298 297 297 298 297 297 298 299 298 296 299 298 297 295 294 293 295 293 292 291 291 291 290 288 288 287 287
295 294 294 295 295 295 295 295 296 296 297 296 295 296 297 298 296 296 297 295 296 296 298 298 296 298 298 294 296 297 296 297 299 298 296 297 296 298 297 295 294 294 295 293 292 292 292 291 290 288 288 287 287 285
293 293 294 294 295 295 295 294 296 296 296 296 295 294 295 295 298 297 294 295 295 297 298 298 296 298 297 297 297 297 297 296 300 299 298 297 297 295 294 293 293 293 295 293 291 290 290 289 288 288 287 286 285 284
293 293 294 294 295 295 295 294 295 295 296 296 296 296 297 298 295 296 295 295 298 299 297 298 297 297 298 298 296 296 299 296 302 295 295 293 297 293 293 293 292 293 293 293 291 290 288 288 288 288 287 285 283 281
292 294 294 294 294 293 293 294 294 295 296 297 297 297 295 292 291 292 293 296 296 296 297 296 297 296 297 295 294 295 292 293 294 287 294 298 297 295 294 293 293 291 292 291 289 288 287 286 286 286 283 281 280 278
293 294 294 294 293 293 293 295 296 296 297 294 293 290 289 289 296 299 300 295 294 295 297 295 295 296 292 294 290 291 292 293 288 293 296 297 297 295 293 293 293 290 289 289 286 285 285 285 283 282 281 280 279 277
293 293 292 292 292 294 295 296 296 296 295 294 294 294 292 295 294 295 294 296 294 295 295 295 294 294 291 288 290 292 290 290 291 290 295 296 295 294 293 293 291 286 285 284 284 283 282 282 281 279 279 279 278 277
292 292 291 292 292 293 295 295 295 295 294 293 294 294 291 295 296 297 297 295 296 293 292 294 294 291 292 292 294 291 295 292 290 294 294 294 294 293 292 291 288 285 284 282 282 282 280 280 279 278 278 278 277 276
292 292 291 292 294 294 295 295 294 294 293 294 294 296 290 294 296 296 294 293 292 294 292 294 293 295 293 294 297 296 295 296 293 293 292 291 291 289 287 285 284 282 282 281 281 280 279 278 278 277 276 275 276 276
291 291 291 292 294 295 295 295 292 293 295 293 294 293 292 291 292 292 290 290 294 293 294 296 292 293 287 296 297 293 293 291 291 291 290 289 288 286 285 283 283 282 281 281 281 279 278 278 278 278 277 276 276 275
291 292 293 294 294 295 292 293 293 294 294 292 291 288 286 287 287 290 290 290 292 294 292 292 293 293 298 297 296 292 291 290 290 289 287 286 286 284 283 283 282 281 281 280 280 279 279 279 278 277 277 276 275 275
294 294 294 294 294 294 293 292 293 292 292 291 289 289 289 288 288 288 290 290 292 293 294 293 295 296 295 294 292 292 290 289 288 288 286 285 284 283 283 282 282 281 281 281 280 280 280 279 277 277 277 276 275 276
294 293 294 294 294 294 293 292 292 292 291 290 289 292 292 290 289 287 287 289 290 292 296 292 293 292 289 290 292 290 289 289 287 284 284 285 284 284 283 283 282 282 281 281 280 280 280 278 278 277 277 277 276 277
293 293 293 293 291 291 290 291 292 290 292 292 292 293 293 292 292 291 290 288 288 291 290 293 292 291 290 292 291 292 290 289 288 286 285 285 284 283 283 282 282 281 281 281 280 279 280 279 279 278 278 278 278 278
293 292 293 291 288 286 291 291 292 293 293 292 292 293 292 292 292 291 292 292 292 290 291 291 291 292 290 290 290 290 290 289 287 285 284 284 284 283 284 283 282 281 280 281 281 281 280 280 280 279 279 279 278 277
291 291 288 287 287 285 287 289 291 292 292 293 292 291 292 291 291 291 291 291 290 287 288 288 290 290 290 289 287 286 290 289 287 286 285 285 284 285 284 283 283 283 283 282 281 281 281 280 280 279 278 278 277 275
284 284 284 283 284 285 285 286 289 289 287 290 288 289 290 291 292 290 291 292 289 288 290 288 288 289 289 288 287 288 289 289 288 287 287 287 286 285 284 284 284 285 284 282 282 281 280 279 279 278 277 277 275 274
283 282 285 283 283 286 287 285 284 286 284 285 288 292 292 291 288 290 294 289 291 289 289 288 288 288 289 289 287 286 289 290 289 287 287 287 286 285 284 282 282 284 284 283 282 281 280 279 278 278 276 276 276 274
283 283 288 288 290 290 285 285 289 285 284 284 283 287 280 284 283 290 290 288 285 288 289 289 290 289 288 286 287 287 289 289 289 288 288 287 287 286 286 283 282 285 284 284 283 282 280 279 278 278 277 276 276 276
285 285 284 283 284 285 282 281 282 283 283 289 285 282 284 286 290 290 287 287 287 287 287 288 289 289 287 286 286 286 286 287 286 286 286 286 286 286 286 285 285 285 285 284 284 282 281 281 279 279 278 276 275 275
284 283 284 282 283 286 283 284 284 288 289 285 281 283 288 290 289 287 286 286 285 286 286 286 285 286 285 284 284 285 285 285 284 277 274 274 278 284 285 285 285 285 285 283 283 283 282 281 280 279 278 277 276 275
284 281 282 278 279 283 289 288 290 285 286 289 283 285 287 287 287 287 286 286 286 286 286 285 285 285 284 283 283 283 283 283 283 282 277 277 280 283 284 283 283 283 283 282 281 279 280 280 278 278 276 274 273 272
287 280 280 280 280 284 288 287 287 287 288 289 288 290 290 288 285 284 284 285 286 287 287 285 285 284 284 284 283 283 282 283 283 284 284 284 282 282 283 283 282 281 282 281 280 279 278 276 276 274 273 272 271 271
289 289 281 282 287 286 286 287 289 288 287 288 283 288 288 288 288 281 280 282 284 285 285 286 286 285 285 285 285 284 283 283 283 284 284 283 282 282 282 282 282 281 281 280 279 277 277 276 274 273 271 270 269 268
285 288 285 283 284 287 287 285 281 285 285 285 287 287 288 287 286 275 278 279 280 280 281 282 285 285 285 285 285 285 284 283 282 282 282 282 281 281 280 280 280 280 279 278 277 276 275 274 273 271 270 269 267 266

GFSWCAN_925_thetae_117.txt.gz
Theta_e
292 292 292 293 293 292 292 293 292 293 293 293 294 295 295 296 295 296 297 297 298 297 299 299 300 301 303 302 301 301 303 302 301 304 306 303 301 301 302 297 303 304 305 304 303 303 302 299 301 301 294 292 290 287
291 292 292 292 293 293 295 296 296 295 295 294 293 295 295 295 295 297 298 297 298 297 298 298 298 298 299 301 298 299 301 301 301 303 301 303 305 300 301 303 302 299 299 300 302 299 296 295 294 291 291 291 288 286
291 291 292 293 293 294 295 295 295 296 297 296 296 295 295 295 295 297 297 299 298 299 299 300 298 298 298 300 301 301 297 301 300 300 301 302 304 300 302 299 304 302 299 297 299 296 296 295 293 291 290 289 286 285
291 291 292 293 294 294 294 295 296 296 296 296 296 296 296 296 297 298 297 297 299 300 297 300 298 299 299 301 301 300 300 300 300 299 297 298 303 302 303 302 303 302 300 299 297 296 295 294 292 291 290 288 287 286
292 293 293 293 294 294 293 294 295 295 296 296 296 297 297 298 298 298 297 297 299 298 297 298 298 299 301 300 302 300 299 297 297 298 298 301 301 303 300 301 301 300 299 298 298 296 295 294 291 290 290 289 287 285
292 292 292 292 292 293 293 294 294 295 296 297 297 297 296 298 298 297 296 298 299 299 295 299 297 299 299 300 299 299 298 297 296 298 300 301 302 303 302 301 300 298 297 296 296 294 292 291 290 291 289 287 286 285
292 292 292 293 298 298 299 298 296 295 296 296 297 296 297 297 297 296 296 298 299 299 292 295 297 296 298 298 298 297 297 297 296 296 299 300 300 301 299 301 298 295 293 293 291 291 292 290 290 290 287 286 286 285
292 295 295 295 297 299 299 298 297 297 297 297 297 298 297 297 297 298 296 299 300 298 294 294 296 296 297 297 298 296 298 296 296 296 297 298 297 299 300 298 294 293 292 292 292 292 291 290 290 289 287 287 286 285
295 294 295 295 295 297 297 298 298 298 297 297 297 297 297 297 297 297 298 299 299 298 295 295 295 294 295 296 296 296 296 296 296 298 298 298 296 298 297 297 293 292 293 292 292 291 290 290 290 288 287 286 286 285
294 295 296 296 296 295 296 296 296 296 296 297 296 296 297 297 297 298 296 295 295 295 296 297 295 298 297 294 296 296 295 296 298 298 295 297 295 296 296 295 293 292 292 291 291 291 290 290 290 288 287 286 286 285
294 295 295 295 296 296 296 296 296 296 295 296 293 295 296 296 296 296 295 294 293 297 297 297 296 298 296 296 296 295 297 296 300 298 297 296 296 294 293 293 292 292 291 291 290 290 290 290 289 287 287 287 286 285
295 295 295 295 295 296 296 296 295 295 296 295 295 295 296 297 294 295 294 295 297 299 296 296 297 297 297 296 296 296 298 296 302 294 296 294 292 292 292 292 291 291 291 291 290 288 288 288 287 287 286 285 284 282
294 295 295 294 294 294 295 295 295 296 296 297 296 295 295 292 290 291 292 296 294 295 295 295 296 295 295 294 293 295 293 293 294 288 293 293 295 293 293 293 291 290 290 289 288 288 287 287 287 286 284 282 280 279
294 294 294 294 294 294 295 296 296 296 296 293 294 291 290 290 297 298 298 294 293 292 295 294 293 294 291 293 290 293 292 292 288 291 295 296 295 294 293 292 291 288 286 286 285 285 285 286 285 284 283 280 279 277
294 293 293 294 293 294 295 296 296 296 294 293 293 292 294 295 295 296 295 295 291 291 294 293 292 293 290 289 290 291 291 289 290 288 293 296 295 293 292 291 283 282 282 282 284 284 283 283 282 280 280 280 279 277
291 292 292 293 294 295 295 294 295 295 293 293 294 294 292 293 296 298 297 294 295 290 290 293 293 291 292 292 293 290 293 289 287 294 294 294 294 293 293 290 285 280 282 282 283 283 283 281 280 279 278 279 278 278
292 291 292 293 294 294 295 294 295 293 293 294 294 291 286 291 295 296 295 295 291 294 293 294 292 296 292 293 296 295 292 292 293 293 292 292 292 292 289 286 282 282 282 282 282 281 280 279 278 278 277 276 277 277
291 291 293 295 295 295 295 294 291 293 295 292 292 293 290 290 293 294 292 290 293 293 293 296 292 292 285 295 297 294 292 291 291 291 290 288 287 286 285 284 283 282 281 281 280 279 279 279 279 279 277 276 276 275
292 293 294 294 294 294 291 292 292 293 292 291 290 289 287 287 290 289 289 288 291 292 292 293 293 295 293 296 294 292 291 290 290 288 287 286 286 284 282 283 282 282 281 280 280 280 280 280 279 278 277 276 276 275
293 294 294 294 294 293 293 292 292 292 291 291 288 288 287 289 290 288 288 290 292 293 294 292 294 296 291 293 292 291 290 289 288 287 286 285 284 283 282 282 282 281 281 281 280 280 280 279 278 278 277 277 276 276
293 293 293 293 293 293 291 291 291 291 290 289 288 288 288 288 288 287 289 289 291 293 293 292 292 291 289 288 290 289 289 289 288 284 283 284 284 283 282 282 282 281 281 280 280 280 279 279 277 277 277 276 275 276
293 293 292 293 290 291 290 290 290 289 290 291 291 291 287 283 285 287 289 288 291 291 290 293 291 291 291 291 290 290 289 289 287 285 285 284 282 283 282 281 281 280 280 279 280 279 279 278 277 277 276 276 276 276
292 292 292 289 287 286 290 290 292 292 289 289 291 292 290 287 288 290 288 288 289 288 290 291 291 291 290 290 290 290 290 289 288 285 283 283 283 283 283 282 282 280 279 280 280 280 279 278 278 277 277 276 276 276
291 290 287 286 287 285 285 289 291 292 291 292 292 290 292 291 291 290 290 290 286 285 289 289 290 290 289 290 288 286 288 288 286 285 285 283 281 282 283 283 282 282 282 281 280 280 279 279 278 278 277 277 276 275
284 284 283 281 283 283 283 285 290 289 286 289 289 289 291 291 290 285 289 291 289 290 289 288 287 289 289 287 287 288 289 288 287 286 286 285 285 284 284 283 283 283 282 281 280 280 279 279 278 278 277 277 275 274
281 280 285 282 281 285 285 285 282 284 283 284 285 291 291 289 283 285 292 288 291 289 288 288 288 288 288 288 287 286 288 289 289 287 287 286 286 285 283 280 279 282 283 283 281 279 278 278 278 277 276 276 275 274
282 282 287 287 289 289 283 282 287 283 282 283 282 286 278 283 282 289 289 287 287 288 288 289 289 288 288 287 287 288 289 289 288 288 288 287 287 287 286 283 281 284 284 283 282 281 280 279 278 277 276 275 276 276
284 283 282 281 283 283 281 279 281 283 283 287 284 283 284 284 287 289 286 287 287 287 287 287 288 289 287 286 286 287 286 287 286 286 286 286 286 286 286 285 285 285 285 284 283 282 281 280 279 278 277 275 274 275
283 281 283 279 278 281 281 286 283 288 289 285 281 281 290 289 288 286 286 286 285 286 286 286 285 285 285 285 285 285 285 285 284 276 276 275 275 285 285 285 285 284 284 284 283 283 282 281 280 279 278 277 276 275
282 279 280 274 279 282 279 288 288 283 286 287 286 287 287 286 286 286 286 285 285 285 285 285 285 285 283 283 282 283 283 284 283 283 277 275 278 283 285 284 283 283 283 282 281 280 280 279 279 278 277 275 274 273
283 276 279 277 278 282 287 286 286 286 286 288 287 289 289 286 284 283 284 284 285 286 286 285 285 284 284 283 283 283 282 283 283 283 283 283 283 283 283 283 283 283 282 281 281 280 279 278 277 276 275 274 272 272
288 284 277 284 286 285 285 286 288 285 279 278 279 287 287 287 288 282 280 282 284 285 285 286 285 285 285 285 284 284 284 283 283 283 283 284 284 282 283 282 281 281 281 280 280 279 279 278 276 275 274 272 272 271
275 278 282 281 279 286 286 283 276 276 274 275 276 274 277 278 280 273 278 280 281 281 282 283 284 285 286 285 285 285 285 284 283 283 283 282 282 282 282 281 281 281 280 279 278 277 277 276 275 273 272 271 270 269

GFSWCAN_925_thetae_120.txt.gz
Theta_e
292 292 292 292 293 293 293 294 293 293 294 295 296 296 295 295 296 296 295 296 296 297 297 298 300 301 302 300 300 302 304 302 302 304 305 304 303 303 304 300 305 306 306 305 305 305 302 300 301 301 296 292 292 291
291 292 292 292 292 293 293 293 293 293 293 294 294 295 296 296 296 296 295 296 296 297 298 298 299 299 299 300 298 300 300 299 299 302 303 304 306 300 300 302 301 304 298 298 300 298 294 295 295 292 292 290 287 288
291 291 291 291 292 293 293 292 295 296 296 293 293 294 295 295 296 295 295 296 296 297 297 298 298 298 298 298 299 302 300 299 299 298 299 300 306 301 305 299 301 300 298 294 297 295 295 294 292 291 290 288 286 287
291 291 291 291 292 292 293 294 295 295 295 294 294 293 294 295 296 295 296 296 296 298 299 296 298 297 298 298 299 300 299 300 299 301 301 303 305 301 300 300 299 299 298 298 297 296 295 294 292 290 287 286 285 285
290 291 292 293 293 293 293 294 294 293 296 296 296 295 295 295 295 296 296 296 298 299 298 297 297 298 299 299 300 301 300 300 301 300 300 301 300 298 297 298 298 299 299 300 300 297 296 294 291 289 287 286 285 284
290 292 293 293 293 293 293 294 294 294 295 295 295 296 296 295 296 296 294 296 296 298 296 300 297 297 299 299 301 300 299 297 297 298 299 298 300 299 298 301 299 298 297 296 296 294 292 291 290 289 287 286 285 284
292 291 291 291 292 292 292 294 294 294 295 296 296 296 297 297 297 296 297 297 296 297 296 299 299 297 299 300 299 298 297 297 295 295 297 298 299 301 302 303 298 294 293 292 291 291 292 290 291 289 286 286 285 283
291 292 293 297 298 298 294 293 294 294 296 297 297 296 296 297 297 297 297 297 297 298 294 298 299 298 297 298 299 295 296 295 294 294 295 297 297 299 303 298 293 292 292 292 292 291 291 289 288 287 286 284 284 284
294 292 298 298 297 297 297 294 294 295 296 297 296 296 295 296 297 297 298 298 298 298 296 294 296 295 294 295 295 295 294 296 294 297 297 296 296 298 297 297 293 292 293 292 290 290 289 289 288 287 285 285 285 284
295 295 297 298 297 297 296 296 296 297 297 297 296 296 296 297 296 297 297 297 297 296 294 293 292 295 295 291 295 296 294 296 299 297 294 296 295 296 295 294 292 292 291 290 290 290 290 289 288 287 286 285 285 284
296 296 295 296 297 297 298 297 297 296 296 296 292 295 295 295 295 295 293 294 292 296 295 295 296 297 295 296 296 295 296 296 299 298 296 296 297 295 293 292 291 291 290 290 290 290 289 289 288 287 286 285 285 284
295 296 296 296 295 295 296 296 296 296 295 294 296 296 295 296 294 295 293 295 296 299 295 296 296 296 296 295 296 295 298 296 301 292 295 294 292 293 292 292 291 290 289 289 289 289 288 288 287 286 286 286 285 282
295 295 295 295 295 295 295 296 296 296 296 296 295 294 294 291 291 292 292 295 294 295 294 294 295 294 294 293 293 295 293 293 293 289 294 292 294 292 291 290 289 289 289 288 287 287 287 287 287 286 285 283 281 279
294 294 294 294 295 295 295 296 296 296 296 294 295 292 291 289 295 295 297 294 295 292 294 293 292 293 290 292 289 293 291 292 290 291 292 289 293 291 291 290 289 287 285 286 284 284 284 285 284 283 282 281 279 277
294 294 294 293 295 296 296 296 296 295 293 293 293 293 294 295 295 296 295 296 293 290 291 292 292 292 290 289 290 292 292 289 289 286 289 295 292 291 292 290 283 280 279 279 281 281 282 283 282 281 280 280 279 277
294 294 293 293 295 296 296 295 295 295 292 293 294 295 291 294 298 298 296 295 291 289 290 292 292 291 292 292 292 289 291 287 286 292 294 294 292 292 291 287 278 279 280 281 282 283 282 282 281 280 279 279 278 278
292 291 293 294 294 294 294 294 294 293 292 293 290 290 287 290 294 294 294 291 290 293 292 294 293 296 292 292 295 294 292 291 292 293 292 293 292 292 288 283 280 280 281 282 282 282 281 281 280 279 278 277 277 277
292 293 294 294 294 294 294 293 291 293 294 290 290 290 288 288 292 290 291 290 293 293 293 296 291 291 285 294 296 294 292 290 290 290 289 289 288 287 288 286 284 282 281 281 281 280 280 279 280 279 278 277 276 276
294 294 294 294 294 294 291 291 292 292 290 288 289 289 290 291 289 290 288 289 291 291 292 293 293 295 296 295 294 292 290 290 290 288 287 286 286 284 282 283 283 282 281 280 280 280 280 281 280 278 277 277 276 275
293 294 294 294 293 292 292 291 291 291 291 289 287 287 287 289 289 285 287 290 292 293 293 292 293 295 292 292 291 291 290 289 288 287 286 285 284 283 282 282 281 281 281 281 281 281 280 279 279 278 277 277 276 276
292 292 292 293 292 292 289 290 290 290 289 288 287 288 288 288 289 287 289 289 291 293 292 292 292 291 289 289 290 290 289 289 289 286 284 285 284 283 283 282 282 282 281 281 280 280 280 279 278 278 277 276 276 276
292 293 292 292 290 290 289 288 289 288 289 290 290 290 286 283 284 285 288 288 291 292 292 292 291 291 290 291 290 289 288 287 286 284 284 284 283 282 282 281 281 279 280 280 280 279 279 278 278 277 276 276 276 276
291 291 290 288 287 285 289 289 290 291 287 288 289 289 286 283 285 288 286 287 290 287 287 290 291 291 290 290 290 289 289 288 287 285 283 282 283 283 282 281 282 279 278 279 280 279 278 278 277 276 276 276 275 275
290 288 286 285 286 284 284 287 290 292 290 290 290 290 289 291 289 287 290 290 286 284 289 289 290 290 290 290 288 287 288 288 286 284 284 282 279 280 282 282 282 282 282 280 280 279 278 277 277 276 275 275 274 274
284 283 281 281 282 283 283 284 286 288 287 288 286 288 290 290 284 283 289 291 289 289 288 287 287 288 288 287 286 288 288 288 287 286 285 285 284 283 282 282 282 282 281 280 279 279 278 277 277 277 276 276 275 275
280 279 284 281 280 285 285 285 282 284 282 285 286 290 290 282 282 286 289 282 290 288 288 288 288 288 288 288 287 285 288 288 288 286 286 286 285 285 283 278 276 280 282 282 280 278 278 277 277 277 276 276 275 275
281 281 286 286 287 288 282 281 286 282 282 283 282 286 279 282 282 286 288 287 287 287 288 288 288 288 288 286 286 287 288 288 288 287 288 287 286 286 286 283 281 284 283 282 281 280 279 278 277 277 276 276 276 276
282 282 282 280 281 282 280 278 280 282 281 285 282 282 283 283 285 288 286 287 287 287 287 287 288 289 288 286 286 286 286 287 286 286 286 285 286 286 286 285 285 285 284 283 282 281 280 280 278 277 277 276 275 275
282 279 281 278 276 278 282 285 285 288 289 285 280 281 285 289 287 286 286 286 286 286 286 284 284 285 285 285 285 285 285 285 284 277 277 275 273 284 285 285 284 284 284 283 283 282 282 281 280 279 278 277 276 276
281 277 279 272 278 282 282 287 287 284 286 287 286 287 287 286 285 286 285 285 285 285 285 285 285 284 283 284 283 283 283 283 283 283 275 274 277 283 284 284 283 283 283 282 281 280 279 279 278 277 276 275 275 274
280 275 278 276 277 274 284 285 286 286 286 284 286 286 288 285 283 284 285 285 285 285 285 285 284 285 284 283 283 283 282 283 282 283 283 283 283 283 283 282 282 282 282 282 281 280 279 278 277 276 275 274 273 273
285 280 277 284 286 285 285 286 287 285 276 277 283 285 286 287 287 282 281 282 283 284 286 286 285 284 285 285 284 284 284 283 283 283 283 283 284 282 282 282 282 282 282 281 280 279 278 277 276 275 274 273 272 272
277 274 275 276 277 286 286 282 276 274 271 272 272 271 280 284 281 274 278 279 281 283 283 284 284 285 285 285 285 285 285 284 283 283 283 282 282 282 281 281 281 281 281 280 279 278 277 277 276 275 274 273 272 271

GFSWCAN_925_thetae_123.txt.gz
Theta_e
292 291 292 292 292 293 293 293 294 294 294 294 296 296 295 295 296 296 295 296 296 296 296 299 299 301 301 301 301 301 304 304 304 304 303 304 305 305 306 304 307 308 308 308 307 308 308 302 301 304 302 295 298 296
292 292 292 292 292 292 293 293 294 293 293 294 295 295 294 295 295 295 294 294 295 296 296 297 298 299 299 300 301 301 302 302 303 303 303 303 305 303 304 307 302 308 308 307 306 307 298 297 298 295 295 295 294 295
291 291 291 292 292 292 292 293 293 292 293 293 294 295 295 294 295 295 294 294 295 295 295 296 296 296 297 298 300 302 301 300 301 300 303 305 306 304 305 304 303 302 299 303 302 299 298 297 294 293 293 293 291 292
291 291 291 291 291 291 292 293 293 293 295 293 293 294 295 295 295 295 295 295 295 296 296 297 296 297 297 298 298 299 299 299 300 302 304 305 305 302 305 304 303 301 300 300 300 296 296 296 295 294 290 289 290 290
290 290 290 291 291 292 292 292 293 293 294 295 295 293 294 295 296 295 295 295 295 295 299 296 296 297 298 298 298 298 299 300 302 302 304 304 303 303 301 301 303 300 301 303 305 300 300 298 295 290 289 289 288 288
290 290 290 291 292 293 293 293 294 294 294 296 295 294 294 294 295 295 295 295 295 295 297 300 297 298 298 299 300 300 300 300 301 301 303 300 300 301 304 305 300 299 298 297 300 296 294 293 291 290 288 287 287 287
290 291 292 292 292 293 293 293 293 294 293 295 296 294 294 294 295 294 296 296 294 296 296 299 300 297 294 300 300 299 298 298 299 299 299 301 302 303 302 306 299 295 294 294 293 293 292 292 291 288 287 286 286 284
290 291 292 292 292 292 292 293 293 294 294 295 295 295 295 295 295 294 296 297 296 295 294 299 300 299 295 299 301 298 299 297 296 298 297 300 300 301 305 299 295 293 293 293 293 292 293 291 289 287 286 285 285 285
292 296 297 297 297 294 292 293 293 294 295 296 296 296 295 295 294 296 296 297 297 297 299 297 300 301 296 298 298 297 296 299 296 299 299 298 299 302 300 298 294 293 294 293 291 291 290 290 288 287 286 286 286 285
297 296 297 298 298 297 294 293 294 295 298 296 295 292 296 296 297 297 296 295 296 296 296 297 294 301 297 296 298 299 297 299 302 299 296 301 301 297 295 296 294 293 292 291 291 291 290 289 288 287 287 286 286 285
297 297 295 294 294 294 294 294 295 296 295 294 295 295 296 296 295 295 297 298 296 298 296 296 296 299 296 300 300 296 299 298 301 300 300 300 301 297 294 293 293 292 291 291 292 292 290 289 289 288 287 286 285 284
295 296 297 297 297 297 296 297 296 296 295 295 296 294 292 294 296 296 293 295 297 299 296 298 297 297 297 296 299 297 299 298 302 295 299 299 295 294 294 293 292 291 291 291 290 290 289 288 287 287 286 285 284 283
294 295 295 295 296 296 296 296 296 297 297 296 295 294 295 293 292 293 292 295 296 297 295 297 298 296 295 295 296 298 297 298 295 297 299 296 295 294 293 292 291 290 289 289 289 288 288 287 287 286 286 284 281 279
293 294 295 295 296 296 296 296 296 296 295 294 295 294 293 292 295 295 297 296 296 294 296 296 295 296 293 295 292 297 295 294 297 298 297 293 295 293 292 291 291 289 287 288 287 286 285 285 284 284 283 281 279 278
293 295 296 295 296 296 296 296 295 295 293 294 294 294 296 295 296 295 296 297 294 292 293 295 294 294 293 293 292 294 295 296 295 295 294 294 293 291 290 289 286 284 282 282 283 282 282 283 282 282 281 280 279 277
293 294 294 296 296 296 295 294 295 295 292 294 293 295 293 296 298 297 296 296 293 292 293 294 294 295 295 294 294 293 295 293 292 293 295 294 293 293 289 286 282 281 282 281 281 282 282 281 281 281 280 279 278 278
293 293 294 294 294 294 294 294 294 293 293 293 293 289 289 292 294 294 293 294 291 295 296 296 295 296 294 295 296 293 294 294 294 294 293 293 293 292 286 281 280 281 282 282 281 282 281 281 280 279 279 278 278 278
294 294 294 294 294 294 293 293 291 293 293 291 292 291 290 291 292 291 291 290 294 295 295 296 293 294 292 295 295 295 293 291 291 291 290 290 290 289 287 285 282 283 283 281 281 281 280 280 281 281 279 278 277 276
293 294 294 293 293 293 291 291 291 292 291 290 290 290 290 291 291 290 289 291 292 292 294 294 294 295 296 295 295 293 292 291 291 289 287 286 286 286 286 285 284 284 282 282 282 282 282 282 282 280 279 278 278 277
293 293 293 293 293 291 291 291 291 291 290 289 288 290 290 291 290 289 290 291 293 293 294 294 294 295 294 293 292 292 291 289 289 289 287 285 284 284 283 284 284 283 282 282 282 281 281 280 280 279 279 278 278 277
292 292 292 292 292 291 289 290 290 290 290 290 288 289 289 289 290 289 291 290 292 293 293 293 293 291 289 290 290 289 289 290 290 289 288 286 285 284 283 283 282 282 282 282 282 281 281 281 279 278 278 278 277 276
291 292 291 292 289 290 290 288 290 288 290 291 290 290 289 288 290 289 289 290 291 291 291 291 292 291 291 291 289 289 288 288 286 284 284 285 285 284 284 282 282 282 282 281 281 281 280 279 278 278 277 277 277 276
290 291 290 288 287 286 289 288 290 291 288 289 290 290 289 287 287 289 288 289 290 289 290 291 291 291 290 289 289 288 288 288 287 285 283 282 282 282 282 281 281 281 281 280 280 280 279 278 277 276 276 276 275 275
290 287 284 284 285 284 284 286 290 291 289 291 290 289 289 287 288 287 290 290 288 286 290 290 290 290 290 290 289 288 288 287 286 285 284 282 282 281 281 281 281 281 281 280 279 279 278 277 276 276 275 275 275 274
284 283 282 281 282 282 283 284 284 287 286 287 287 287 290 289 285 285 290 292 290 290 289 289 289 289 290 289 288 288 288 287 287 287 285 284 283 281 281 281 281 281 281 279 278 278 277 276 276 276 275 275 275 275
280 279 283 280 280 284 284 284 281 283 284 285 286 290 288 284 284 287 290 288 290 289 289 289 289 289 289 288 288 288 288 288 287 287 286 285 284 284 283 282 282 280 281 281 279 277 276 276 276 276 276 275 275 275
280 281 285 286 287 287 282 281 285 283 283 285 285 284 282 283 284 286 289 287 288 287 287 288 288 288 288 287 286 287 288 288 288 288 287 287 286 286 286 283 281 283 283 281 280 279 277 276 276 276 276 275 275 275
281 281 282 280 281 281 280 278 279 281 282 285 283 283 284 285 287 288 287 286 286 287 286 286 288 288 288 287 286 286 285 286 286 286 285 285 285 285 285 285 285 285 284 282 281 280 279 278 277 277 276 275 275 275
281 279 281 278 276 278 286 284 285 288 289 285 281 282 284 288 287 286 286 286 286 286 285 284 283 284 284 284 285 285 285 285 284 282 282 283 282 283 285 284 284 284 283 282 282 281 280 280 279 278 278 277 277 276
281 277 278 273 278 282 283 286 288 286 286 287 287 287 287 286 285 285 285 285 285 285 285 285 284 284 284 284 283 283 283 283 283 282 281 281 281 283 284 283 283 282 282 282 281 280 279 278 277 277 276 275 275 274
280 276 278 276 277 275 281 284 286 286 286 287 286 287 289 286 284 285 285 285 285 285 285 284 284 285 284 284 284 284 283 283 282 283 283 283 282 282 281 281 281 281 281 281 280 279 279 278 277 276 275 274 273 274
275 276 278 281 280 279 285 286 286 286 278 281 286 282 283 285 287 284 282 283 283 284 285 285 284 284 285 285 284 284 284 283 283 282 282 283 283 282 281 281 281 282 282 281 280 279 278 278 276 275 274 273 273 273
277 276 274 274 279 286 285 283 278 279 280 278 276 275 283 287 286 279 279 280 282 284 285 285 285 285 285 285 285 285 284 284 283 282 282 283 282 282 280 281 281 281 281 280 279 278 277 277 276 275 274 273 273 272

GFSWCAN_925_thetae_126.txt.gz
Theta_e
292 292 292 292 292 293 293 293 292 292 293 296 295 296 295 296 297 297 297 297 298 300 300 300 301 302 303 303 303 304 305 304 305 305 304 304 305 304 304 308 305 307 308 311 311 310 311 306 305 306 309 303 305 306
292 292 292 292 292 292 293 293 293 292 292 293 294 295 295 296 296 296 297 297 297 298 299 298 299 299 301 302 302 303 302 304 305 305 305 304 305 306 305 307 305 308 310 310 309 309 306 305 305 302 302 304 303 303
291 292 292 292 292 292 292 292 293 293 292 293 295 295 295 296 296 296 297 296 296 297 297 298 298 297 298 299 302 303 302 302 304 304 306 306 306 305 306 306 305 306 306 308 306 307 304 304 301 301 300 301 300 300
291 291 291 291 291 291 292 292 293 293 294 293 294 295 295 296 296 295 296 295 295 296 297 297 297 296 296 298 300 301 302 302 302 304 305 307 308 306 306 307 307 305 305 306 307 304 301 302 302 302 298 298 298 297
290 290 291 291 291 291 291 292 292 293 293 294 293 294 295 294 296 296 296 296 295 296 298 298 298 299 299 298 299 300 301 302 303 305 304 304 305 306 305 306 307 305 307 308 308 306 306 305 303 299 297 297 296 296
290 290 290 290 291 291 292 293 291 293 293 294 295 294 295 295 295 296 296 295 296 296 296 297 300 301 300 300 300 300 301 301 302 303 303 304 303 304 308 309 306 305 303 302 305 302 300 299 298 297 296 295 295 294
290 290 290 290 291 291 292 293 292 294 294 295 295 294 294 295 296 296 296 297 295 296 298 298 301 299 299 299 301 301 301 301 301 301 304 305 303 305 308 306 305 302 301 300 299 298 297 296 296 294 293 292 292 292
291 291 292 292 292 292 292 293 292 293 293 295 295 294 293 294 295 295 297 296 295 295 297 299 300 300 295 300 300 298 298 299 300 303 301 304 303 306 306 305 301 299 298 298 297 296 297 296 293 292 291 290 290 290
292 291 291 292 292 292 292 292 293 293 294 295 294 294 294 294 295 294 294 295 295 297 298 300 302 304 295 300 300 301 301 303 299 303 303 303 306 305 304 303 300 298 299 297 295 295 294 294 292 291 290 290 290 289
296 296 296 295 293 293 293 292 293 294 296 295 294 295 296 295 295 295 295 295 294 296 296 300 299 303 300 304 303 303 301 303 305 304 301 305 304 302 300 300 299 297 296 296 295 295 294 293 292 291 291 290 290 289
296 298 298 297 295 293 293 293 294 296 295 295 297 296 296 296 295 296 299 299 298 300 300 300 299 302 300 303 302 301 303 302 302 304 303 304 303 302 299 298 297 296 295 295 295 295 295 294 292 291 290 290 288 288
295 295 295 294 294 294 294 294 294 296 296 296 295 293 294 296 300 299 299 298 300 302 301 301 302 302 301 300 303 301 302 302 300 301 303 302 301 298 298 297 296 295 295 294 294 294 293 293 291 291 289 288 287 286
296 296 296 295 295 295 295 296 296 296 295 296 296 297 298 296 298 298 299 300 302 302 301 302 303 301 300 301 302 301 302 302 300 304 301 301 299 297 297 296 295 294 293 293 292 292 291 290 290 289 288 287 285 283
296 296 296 296 296 296 296 297 296 296 296 297 297 297 297 298 298 299 300 302 298 300 302 303 302 302 300 300 299 301 299 300 303 302 301 300 298 297 296 295 294 293 292 292 291 290 289 288 287 287 286 283 282 281
295 296 296 296 296 295 295 295 295 295 296 296 296 297 297 296 296 296 298 299 296 299 300 301 300 300 299 299 298 299 300 301 301 301 299 297 297 295 294 294 292 290 289 289 288 288 287 286 286 285 284 283 282 280
295 295 294 295 296 296 294 295 295 295 296 296 295 298 298 299 299 299 299 298 298 298 298 300 299 300 298 298 299 298 298 298 300 298 297 296 295 295 294 293 291 290 289 288 287 286 286 285 285 285 283 283 281 280
294 294 294 294 294 294 294 295 295 295 295 296 296 294 295 297 298 298 296 299 296 300 303 299 299 299 298 298 298 297 299 298 298 297 296 296 296 295 291 289 287 287 287 287 287 286 286 285 283 283 284 282 281 280
294 293 293 293 294 294 294 294 295 295 295 295 297 295 295 294 297 297 296 296 299 300 300 299 298 298 299 298 298 298 296 294 294 294 293 294 294 292 290 290 286 287 287 286 286 285 285 284 285 286 284 282 281 280
293 292 293 293 293 294 295 294 295 295 294 294 295 295 295 295 294 293 295 296 296 297 298 298 298 298 298 297 298 297 295 294 294 292 290 290 291 291 289 288 288 288 287 286 286 287 286 286 287 285 284 282 282 281
292 292 292 292 293 294 294 294 294 295 295 295 294 295 295 295 293 294 296 296 296 297 297 297 297 297 297 296 295 295 294 293 292 293 292 290 288 289 290 289 290 287 286 286 286 286 286 285 284 283 283 283 283 281
291 291 292 292 293 293 294 293 293 294 294 295 294 294 295 294 295 295 296 294 296 296 296 295 296 294 293 292 291 292 292 292 292 293 293 291 288 288 288 288 287 287 287 287 287 286 285 286 284 283 282 282 282 281
290 291 291 292 293 293 293 292 293 293 294 294 294 294 295 296 296 295 293 295 294 293 294 294 294 293 292 291 291 290 289 289 288 288 287 288 289 288 288 287 287 288 288 287 287 286 285 284 283 282 282 281 280 280
290 291 291 291 292 293 293 291 293 293 293 294 293 293 294 294 293 292 294 293 292 291 291 292 293 293 292 290 290 289 289 289 290 289 289 289 289 288 287 286 287 287 287 286 285 285 284 282 281 281 281 280 280 279
289 289 290 291 292 292 290 293 293 293 293 294 293 293 292 293 292 293 295 294 292 291 291 291 293 292 292 291 291 290 289 289 289 288 287 288 289 288 287 287 285 285 285 285 284 283 282 281 280 280 280 279 279 278
290 288 290 291 289 292 292 293 292 292 293 293 292 292 292 292 293 293 294 294 293 293 293 293 293 293 294 293 292 291 288 289 289 290 288 288 288 286 286 285 285 284 283 284 283 282 281 280 280 280 279 279 279 278
288 289 291 291 291 292 292 293 292 292 292 292 292 292 291 292 292 294 293 294 294 293 293 293 293 292 291 292 292 292 291 290 290 291 289 288 288 288 288 287 286 285 283 283 283 282 280 280 280 279 279 279 278 278
288 291 290 289 290 291 291 290 290 292 292 293 292 292 291 291 293 292 292 291 291 290 290 290 289 290 291 290 289 288 289 289 289 289 288 288 287 287 288 287 287 286 284 282 282 282 281 280 279 279 279 278 278 278
289 288 290 290 290 289 291 290 291 292 291 289 290 291 291 291 293 291 291 288 288 288 287 287 288 288 290 289 288 286 285 285 286 286 285 285 285 285 285 285 285 285 283 282 282 281 281 280 280 279 279 278 278 278
291 287 288 286 287 289 290 290 290 289 290 290 291 292 290 290 290 290 288 288 287 287 287 287 287 286 286 285 285 285 286 286 287 288 288 289 287 286 284 284 284 283 282 280 281 280 280 280 280 280 279 279 277 276
289 285 289 284 287 290 290 290 291 290 289 289 290 290 290 290 288 286 287 287 287 287 287 287 287 287 287 287 286 285 284 284 285 286 288 288 287 285 283 282 282 281 281 281 281 279 278 278 278 277 277 276 276 276
286 287 289 288 289 289 288 289 289 288 289 289 290 291 291 291 288 286 287 287 287 286 286 287 286 286 287 286 287 286 286 284 283 283 283 283 282 282 282 282 282 281 281 282 281 280 279 278 279 278 277 277 276 275
287 288 289 289 289 287 288 288 288 288 288 288 289 289 289 290 291 290 285 285 287 286 286 286 286 287 285 286 285 285 285 285 283 283 283 282 282 282 282 281 281 281 281 281 281 280 279 280 279 279 278 277 275 275
286 285 284 286 288 287 288 287 286 286 286 287 287 286 289 290 291 290 281 282 285 287 286 286 286 286 285 285 285 285 284 284 283 282 282 282 282 281 280 280 280 280 280 280 279 279 279 279 278 278 277 276 274 274

GFSWCAN_925_thetae_129.txt.gz
Theta_e
293 292 292 293 293 292 293 293 291 292 291 293 295 296 297 294 294 296 299 299 301 303 303 303 304 304 305 306 305 306 305 306 307 306 306 306 306 305 305 309 305 308 308 309 309 310 310 306 308 309 311 309 309 309
292 292 292 292 292 293 293 293 292 292 291 296 297 296 295 296 296 296 298 298 299 301 302 301 302 302 303 303 303 305 304 305 305 306 305 304 305 305 305 307 304 308 310 310 308 309 310 309 308 309 307 307 308 308
292 292 292 292 292 292 292 292 292 292 291 292 296 296 296 297 296 297 298 298 298 300 300 301 301 301 302 303 303 305 304 303 305 306 307 307 307 305 307 309 306 306 306 309 308 307 308 308 307 306 305 305 306 306
292 292 292 292 292 292 292 292 292 293 293 293 294 295 296 296 296 298 298 298 298 299 300 300 298 300 300 301 302 303 303 304 304 305 305 306 306 307 309 307 308 308 307 307 308 307 307 306 307 307 304 303 304 303
291 291 291 291 292 291 291 292 292 293 294 294 295 295 296 296 295 298 298 297 297 299 300 300 300 299 299 299 300 301 303 303 303 303 304 305 305 305 306 307 307 306 308 309 309 308 309 308 307 305 304 302 302 301
291 290 290 291 291 291 291 292 293 293 294 295 294 296 296 296 296 297 297 297 297 297 298 299 301 300 299 300 299 302 303 302 303 303 304 304 304 306 306 306 306 306 306 306 308 306 305 304 305 304 302 301 301 300
291 290 290 290 291 291 291 292 293 293 294 294 294 295 295 295 297 298 299 298 297 297 298 300 299 301 300 300 301 302 301 302 303 303 303 303 304 304 305 307 305 306 306 305 304 302 302 301 301 300 300 300 298 297
290 290 291 291 291 291 291 293 293 293 294 295 294 294 295 294 296 296 298 297 296 297 299 299 300 301 299 301 301 300 302 301 302 303 303 303 304 306 309 307 305 305 304 303 302 300 301 301 298 297 297 297 297 295
290 291 291 291 291 292 292 293 293 293 294 294 295 294 295 295 296 296 295 295 295 297 298 299 299 303 296 301 300 301 301 303 301 303 302 303 304 306 306 307 305 303 303 302 300 300 299 298 297 295 295 295 295 294
295 292 291 291 292 292 292 292 293 294 295 294 294 295 296 295 295 294 295 296 296 297 299 300 302 303 300 303 304 305 303 305 304 303 303 309 307 306 304 303 303 302 301 300 300 299 298 297 296 295 294 294 294 292
296 296 294 292 292 292 292 292 293 295 294 295 297 296 296 294 296 297 298 297 299 301 300 300 300 302 299 306 306 304 305 305 307 306 306 305 305 306 303 302 301 300 299 298 298 298 297 297 295 294 294 293 292 291
297 297 295 293 293 293 293 293 295 295 295 296 295 294 296 297 299 300 301 300 301 303 303 302 301 301 302 302 303 303 303 304 304 304 304 303 305 302 301 300 299 298 298 297 296 297 297 296 294 294 293 292 291 289
294 294 294 294 293 294 294 294 296 296 296 295 297 299 299 300 302 300 299 301 303 303 303 303 304 303 302 303 303 302 305 303 303 305 302 305 301 300 299 299 298 297 296 295 295 295 294 294 292 292 291 290 288 287
296 295 294 294 294 294 295 296 295 296 297 300 299 299 301 300 300 301 304 305 301 304 303 304 303 303 303 303 303 304 302 303 303 303 302 303 299 298 298 298 297 296 294 294 293 292 292 290 290 289 288 287 286 284
296 296 296 296 296 296 296 296 296 298 298 298 298 299 298 299 297 298 299 300 299 303 304 303 302 302 302 303 302 301 302 302 302 303 303 300 298 298 297 297 295 293 292 291 290 289 289 288 288 287 286 286 285 283
295 295 295 295 295 294 295 295 296 297 298 298 297 300 300 300 302 302 301 299 301 303 303 301 302 303 302 301 300 301 299 299 303 300 299 298 298 297 296 294 292 292 292 290 289 288 287 287 287 286 285 285 284 283
295 294 294 294 294 294 295 297 297 297 297 298 300 299 298 301 301 300 299 301 300 303 305 300 301 301 300 300 298 299 302 301 300 299 298 298 297 296 292 292 291 291 290 290 289 288 287 287 286 285 285 284 283 283
296 295 293 293 295 295 296 297 297 297 296 297 299 298 297 297 300 298 299 301 302 301 301 301 300 300 301 299 300 300 298 296 297 296 296 296 295 293 293 292 290 290 290 289 288 287 286 286 287 287 286 284 283 282
293 293 292 292 295 296 296 296 297 297 296 296 296 297 297 298 298 298 300 300 300 300 300 300 300 300 301 300 300 299 297 297 296 295 293 293 293 292 291 290 290 290 290 289 289 289 289 288 289 287 286 285 285 283
292 292 292 292 294 296 296 296 296 297 298 297 297 298 298 298 297 298 299 299 299 299 299 299 300 300 300 298 297 298 297 296 296 295 294 293 292 291 291 291 291 291 290 289 290 289 288 288 288 287 286 286 285 284
293 293 293 295 295 295 296 296 296 296 297 297 297 297 298 298 298 299 299 298 299 299 300 298 297 295 295 295 295 295 295 295 295 294 295 293 292 292 291 290 289 290 290 290 290 289 288 289 287 286 285 285 286 285
292 291 294 294 295 295 295 295 296 296 297 296 297 297 298 299 299 299 296 299 299 297 296 296 295 295 294 293 293 293 292 292 292 291 291 291 293 292 292 290 290 290 290 289 289 289 288 288 286 285 285 285 285 284
291 293 293 294 295 296 294 295 295 295 296 296 296 296 297 297 297 295 297 297 295 293 293 294 294 294 294 292 291 291 291 291 291 291 291 291 292 291 291 290 290 289 289 289 288 288 287 285 284 285 285 284 283 283
290 292 294 294 295 295 294 295 294 294 295 295 295 295 295 296 295 296 297 298 295 293 292 293 293 293 293 292 292 292 291 291 291 291 291 290 291 290 290 289 288 288 288 288 287 286 285 284 284 284 283 283 283 282
292 292 293 293 293 294 294 294 294 294 295 294 294 295 294 294 295 296 296 298 293 293 293 293 293 293 294 293 293 292 291 291 292 292 290 291 290 290 289 288 287 287 286 286 286 285 284 283 282 283 283 283 282 282
290 292 294 294 294 294 294 295 294 294 294 294 294 293 293 294 294 296 296 297 295 295 294 294 296 295 294 294 294 293 292 291 291 291 291 290 290 290 289 289 288 286 285 285 285 284 283 282 282 282 282 282 282 282
291 293 293 292 293 293 294 294 293 294 294 294 294 293 293 294 295 295 293 293 294 294 293 293 293 293 293 292 292 292 292 291 291 291 290 290 290 289 289 289 288 288 286 285 284 284 283 282 282 282 282 282 281 281
292 291 293 293 293 293 294 294 294 294 294 293 293 293 293 294 296 293 292 291 290 291 291 291 290 290 290 291 291 289 288 288 287 288 288 288 288 287 287 287 286 286 286 284 283 283 283 282 282 281 281 281 281 281
292 291 291 290 291 292 293 293 293 292 291 292 293 294 294 292 292 292 291 290 290 290 290 290 289 288 288 288 288 288 287 287 289 289 289 290 289 286 285 285 284 284 284 283 282 282 282 282 282 282 281 281 280 280
291 290 292 290 290 292 293 293 293 293 292 292 292 292 292 293 292 291 290 289 289 289 290 289 288 288 288 288 288 287 286 287 287 288 289 289 289 286 285 284 284 284 283 283 282 281 281 281 281 281 281 280 280 279
290 290 290 291 292 292 291 289 290 290 290 291 292 291 292 293 291 290 289 290 289 289 288 289 288 288 289 289 289 288 288 286 285 285 285 285 284 285 284 284 283 283 283 283 282 281 281 281 281 280 280 280 279 279
289 290 290 290 291 290 288 290 290 290 291 291 290 291 291 291 291 294 288 288 288 289 288 289 289 289 287 288 287 287 287 286 285 284 283 284 284 283 283 283 282 283 283 283 282 282 281 281 281 281 280 280 279 279
288 288 289 289 290 289 290 289 289 289 289 289 289 290 290 291 292 293 285 286 288 289 289 288 288 288 287 286 286 286 285 285 284 284 283 283 283 282 282 282 282 282 282 282 282 282 282 282 282 281 281 281 279 278

GFSWCAN_925_thetae_132.txt.gz
Theta_e
295 295 293 292 292 293 293 293 293 292 292 292 292 292 294 296 296 297 298 297 298 303 304 304 305 305 306 306 308 307 308 307 308 308 307 307 307 306 306 309 307 310 311 309 309 309 310 308 309 309 312 312 310 310
295 293 292 292 293 293 293 293 293 292 291 291 292 296 295 297 297 295 299 300 300 304 304 304 304 304 305 306 306 307 305 306 307 306 306 306 307 308 306 308 305 307 308 310 310 310 311 309 309 308 310 310 309 309
293 292 293 293 293 293 293 292 292 292 291 292 294 296 295 296 294 294 297 298 299 301 303 303 304 303 304 305 305 307 306 305 306 306 308 307 307 305 308 308 307 306 306 307 308 308 307 308 309 309 308 307 307 307
292 293 293 292 292 292 292 292 291 291 292 292 295 293 294 293 294 297 298 299 299 301 303 301 300 301 302 303 304 305 304 305 306 306 306 307 306 305 306 307 306 308 308 308 309 309 309 308 308 309 307 305 305 306
292 292 292 292 292 292 292 292 291 292 293 292 293 294 295 296 298 298 298 299 298 300 303 302 300 300 300 301 302 303 303 304 304 305 305 305 304 305 307 306 306 305 307 308 309 308 309 310 309 306 308 304 304 303
292 292 291 291 292 292 291 291 292 294 294 293 294 296 295 297 298 298 299 298 298 298 301 300 301 300 299 300 301 302 303 303 303 304 303 303 304 306 305 305 305 305 307 308 310 308 307 306 307 307 306 304 303 302
291 291 291 291 291 291 291 291 293 293 294 294 295 296 295 296 297 299 300 299 297 298 301 299 300 302 301 300 302 301 302 303 304 303 303 303 304 304 306 306 304 304 305 304 305 305 304 303 304 303 303 302 301 300
292 292 291 291 291 291 291 291 293 293 294 294 294 295 295 296 296 299 298 297 298 299 299 299 301 301 300 302 302 302 302 302 302 303 303 303 304 305 304 303 305 306 306 305 304 303 303 303 301 301 301 301 300 297
291 291 291 291 291 292 291 292 294 293 294 294 294 295 295 296 297 296 295 296 297 299 298 298 300 302 299 301 300 300 302 303 302 302 302 303 304 305 304 303 306 305 305 304 303 302 301 301 299 298 298 298 298 295
290 290 291 291 291 291 291 293 293 294 294 295 295 295 297 296 296 295 297 298 297 298 299 299 300 302 300 301 300 302 301 302 302 302 303 303 304 303 302 304 306 304 303 303 302 301 300 299 298 297 296 296 296 294
293 291 291 291 291 291 292 292 293 295 294 295 297 297 297 295 297 298 298 297 298 299 299 299 300 302 299 303 302 302 303 303 303 305 304 304 304 305 306 304 303 302 301 301 300 300 299 298 297 296 295 295 294 293
296 294 291 292 292 292 292 292 294 295 295 296 296 296 296 297 298 297 298 299 299 300 302 302 301 302 300 300 304 304 305 305 305 304 305 307 307 305 304 302 301 300 299 298 298 298 298 297 296 295 294 293 292 291
295 294 293 293 292 293 293 294 294 295 296 295 296 297 298 298 299 299 300 301 303 304 303 303 303 301 300 301 303 305 304 305 305 306 304 306 303 302 300 300 299 298 297 296 296 296 295 294 293 292 291 290 288 286
294 294 293 293 293 293 294 295 295 295 296 297 300 301 300 300 300 302 303 305 303 304 305 304 304 305 305 304 305 304 304 304 303 303 304 304 300 299 299 298 298 296 295 294 293 292 291 291 290 290 289 287 285 284
294 294 294 294 294 295 295 295 296 296 297 301 300 301 300 300 300 300 300 301 301 304 305 305 304 304 303 304 304 302 302 302 302 304 304 301 299 298 297 296 293 292 291 291 290 290 290 289 289 288 287 286 285 283
295 295 295 295 295 296 296 296 296 296 299 299 298 300 301 301 299 300 301 301 301 304 304 304 302 304 302 302 300 302 300 300 305 302 301 299 297 297 296 293 292 291 290 289 289 288 288 288 288 287 286 285 284 283
294 294 294 295 294 295 296 296 298 299 298 298 300 297 298 301 301 300 299 301 302 303 304 301 301 301 301 300 299 300 303 302 301 299 298 298 296 294 292 291 290 290 289 289 288 288 287 287 286 286 286 285 284 283
296 294 292 293 294 295 296 296 298 298 297 298 300 299 298 298 299 299 299 302 303 303 302 302 301 300 302 300 301 302 299 299 298 296 295 296 294 292 292 291 290 290 290 289 288 287 287 286 286 286 285 284 284 283
293 293 292 293 296 297 298 298 298 298 297 297 297 297 298 299 299 299 300 302 301 301 302 301 301 300 302 302 302 299 298 297 296 295 294 293 293 292 291 290 290 290 289 289 288 288 287 288 288 287 285 284 284 283
292 293 292 293 295 297 296 298 298 298 298 299 298 299 299 299 299 299 301 301 301 301 300 300 303 302 301 299 299 299 298 298 296 295 294 293 292 292 291 291 291 291 291 291 291 290 289 289 289 287 286 286 285 284
294 294 293 295 297 297 297 297 298 297 297 298 298 298 300 299 300 301 301 299 301 301 301 301 298 297 296 296 296 297 297 296 296 296 296 293 293 293 292 293 292 291 291 291 291 290 289 289 288 287 287 286 286 285
293 292 295 295 296 296 297 297 298 297 298 297 297 298 299 300 301 300 299 300 301 301 299 298 297 295 295 294 294 295 294 293 292 292 293 293 292 292 291 291 291 291 291 291 290 290 289 289 288 287 286 286 286 285
292 293 294 295 296 296 296 296 297 296 297 297 297 298 298 297 298 297 298 299 299 296 295 295 296 295 294 293 292 292 292 292 293 293 292 293 293 293 292 291 290 291 290 289 289 289 289 288 287 286 286 286 286 285
292 293 295 295 295 296 295 296 296 296 296 296 297 296 297 297 296 297 297 299 297 294 293 294 294 294 293 292 292 292 291 291 291 291 291 291 291 291 290 290 290 289 289 289 288 288 287 286 285 286 286 285 285 284
293 293 295 294 295 295 295 295 295 295 295 295 296 296 296 295 296 296 297 299 297 295 293 293 293 293 294 294 294 293 292 292 291 292 291 291 291 290 290 288 288 288 287 288 288 287 286 285 285 285 285 285 285 283
291 294 294 294 295 295 295 295 295 295 295 295 295 295 295 295 295 296 297 299 297 295 294 293 294 294 295 294 295 293 292 291 292 293 291 291 291 291 291 290 288 287 286 286 286 286 285 284 284 284 284 285 284 283
291 294 293 293 294 294 294 295 294 295 295 295 295 295 294 294 295 297 294 295 296 295 294 294 294 295 295 294 294 293 292 291 291 292 291 290 290 290 289 290 289 288 286 286 285 285 284 283 283 284 284 284 283 283
293 292 293 293 293 293 294 294 294 294 294 295 294 295 294 295 297 295 294 292 292 292 293 293 292 291 292 292 292 292 290 290 290 290 290 289 289 288 288 288 288 287 286 285 284 284 284 283 283 283 283 283 283 282
293 292 292 292 292 293 293 293 294 294 293 293 294 294 295 294 294 293 291 290 290 291 291 291 291 290 290 290 290 289 289 288 289 290 290 291 289 287 286 286 286 285 285 284 283 283 283 283 283 283 283 282 282 282
292 291 292 292 291 291 294 294 294 295 293 293 293 292 292 294 294 293 292 290 290 290 290 291 291 289 289 289 289 288 288 288 289 290 291 290 291 288 286 285 284 284 284 283 283 282 282 282 282 282 282 281 281 281
290 290 291 292 292 294 293 291 291 290 290 291 292 292 292 294 293 292 291 291 290 289 290 290 289 289 289 289 289 288 288 286 287 287 287 287 287 286 286 285 284 284 283 283 282 281 281 281 282 282 282 281 281 280
290 290 291 291 291 291 290 290 291 291 292 292 292 292 292 292 291 293 291 290 290 290 290 290 290 290 288 289 289 288 289 288 286 285 285 285 284 284 284 284 284 283 283 283 282 282 281 281 282 281 281 280 280 280
289 290 290 290 291 291 291 290 290 290 291 290 291 292 291 291 291 293 288 288 289 289 289 289 289 289 288 288 288 287 286 286 285 285 284 284 283 283 283 283 283 283 283 283 282 282 282 281 281 281 281 280 280 280